Time,TemperatureF,DewpointF,PressureIn,WindDirection,WindDirectionDegrees,WindSpeedMPH,WindSpeedGustMPH,Humidity,HourlyPrecipIn,Conditions,Clouds,dailyrainin,SoftwareType,DateUTC
2013-09-30 00:01:00,59.8,45.4,29.78,SSE,166,8.0,8.0,59,0.00,,,0.00,Wunderground v.1.15,2013-09-30 05:01:00,
2013-09-30 00:07:00,59.8,45.4,29.77,South,178,8.0,8.0,59,0.00,,,0.00,Wunderground v.1.15,2013-09-30 05:07:00,
2013-09-30 00:10:00,59.9,45.5,29.78,South,182,5.0,7.0,59,0.00,,,0.00,Wunderground v.1.15,2013-09-30 05:10:00,
2013-09-30 00:13:00,59.8,45.4,29.78,SSE,161,7.0,8.0,59,0.00,,,0.00,Wunderground v.1.15,2013-09-30 05:13:00,
2013-09-30 00:15:00,59.7,45.3,29.78,South,177,7.0,8.0,59,0.00,,,0.00,Wunderground v.1.15,2013-09-30 05:15:00,
2013-09-30 00:16:00,59.7,45.3,29.78,South,188,6.0,8.0,59,0.00,,,0.00,Wunderground v.1.15,2013-09-30 05:16:00,
2013-09-30 00:19:00,59.7,45.3,29.77,SSE,155,8.0,8.0,59,0.00,,,0.00,Wunderground v.1.15,2013-09-30 05:19:00,
2013-09-30 00:24:00,59.6,45.2,29.77,SSW,192,4.0,10.0,59,0.00,,,0.00,Wunderground v.1.15,2013-09-30 05:24:00,
2013-09-30 00:25:00,59.6,45.2,29.77,South,175,8.0,10.0,59,0.00,,,0.00,Wunderground v.1.15,2013-09-30 05:25:00,
2013-09-30 00:29:00,59.5,45.6,29.77,South,175,6.0,10.0,60,0.00,,,0.00,Wunderground v.1.15,2013-09-30 05:29:00,
2013-09-30 00:32:00,59.3,45.4,29.76,South,169,7.0,8.0,60,0.00,,,0.00,Wunderground v.1.15,2013-09-30 05:32:00,
2013-09-30 00:35:00,59.2,45.3,29.76,SSE,153,7.0,9.0,60,0.00,,,0.00,Wunderground v.1.15,2013-09-30 05:35:00,
2013-09-30 00:36:00,59.1,45.2,29.76,South,182,5.0,11.0,60,0.00,,,0.00,Wunderground v.1.15,2013-09-30 05:36:00,
2013-09-30 00:40:00,59.1,45.7,29.76,South,188,6.0,8.0,61,0.00,,,0.00,Wunderground v.1.15,2013-09-30 05:40:00,
2013-09-30 00:41:00,59.0,45.6,29.76,South,172,5.0,9.0,61,0.00,,,0.00,Wunderground v.1.15,2013-09-30 05:41:00,
2013-09-30 00:45:00,58.9,45.5,29.76,South,175,8.0,10.0,61,0.00,,,0.00,Wunderground v.1.15,2013-09-30 05:45:00,
2013-09-30 00:47:00,58.9,45.0,29.75,SSW,194,8.0,10.0,60,0.00,,,0.00,Wunderground v.1.15,2013-09-30 05:47:00,
2013-09-30 00:48:00,59.0,45.1,29.76,SSE,157,9.0,10.0,60,0.00,,,0.00,Wunderground v.1.15,2013-09-30 05:48:00,
2013-09-30 00:50:00,59.0,45.1,29.75,South,182,6.0,8.0,60,0.00,,,0.00,Wunderground v.1.15,2013-09-30 05:50:00,
2013-09-30 00:51:00,59.0,46.0,29.75,SSW,202,9.0,9.0,62,0.00,,,0.00,Wunderground v.1.15,2013-09-30 05:51:00,
2013-09-30 00:54:00,59.0,45.1,29.75,SSE,165,8.0,9.0,60,0.00,,,0.00,Wunderground v.1.15,2013-09-30 05:54:00,
2013-09-30 00:56:00,59.1,45.2,29.75,SSW,197,8.0,9.0,60,0.00,,,0.00,Wunderground v.1.15,2013-09-30 05:56:00,
2013-09-30 00:57:00,59.1,45.2,29.76,South,173,7.0,9.0,60,0.00,,,0.00,Wunderground v.1.15,2013-09-30 05:57:00,
2013-09-30 00:58:00,59.1,45.2,29.76,SSE,167,8.0,9.0,60,0.00,,,0.00,Wunderground v.1.15,2013-09-30 05:58:00,
2013-09-30 01:01:00,59.1,45.2,29.76,South,188,7.0,9.0,60,0.00,,,0.00,Wunderground v.1.15,2013-09-30 06:01:00,
2013-09-30 01:03:00,59.1,45.2,29.76,South,173,7.0,9.0,60,0.00,,,0.00,Wunderground v.1.15,2013-09-30 06:03:00,
2013-09-30 01:08:00,59.0,45.1,29.76,South,179,8.0,9.0,60,0.00,,,0.00,Wunderground v.1.15,2013-09-30 06:08:00,
2013-09-30 01:09:00,58.9,45.0,29.76,South,176,6.0,9.0,60,0.00,,,0.00,Wunderground v.1.15,2013-09-30 06:09:00,
2013-09-30 01:10:00,59.0,45.1,29.76,SSE,167,7.0,8.0,60,0.00,,,0.00,Wunderground v.1.15,2013-09-30 06:10:00,
2013-09-30 01:13:00,59.1,45.2,29.76,South,182,5.0,10.0,60,0.00,,,0.00,Wunderground v.1.15,2013-09-30 06:13:00,
2013-09-30 01:14:00,59.1,45.2,29.76,South,173,6.0,10.0,60,0.00,,,0.00,Wunderground v.1.15,2013-09-30 06:14:00,
2013-09-30 01:16:00,59.1,45.2,29.76,South,178,6.0,10.0,60,0.00,,,0.00,Wunderground v.1.15,2013-09-30 06:16:00,
2013-09-30 01:17:00,59.1,45.2,29.76,South,182,7.0,10.0,60,0.00,,,0.00,Wunderground v.1.15,2013-09-30 06:17:00,
2013-09-30 01:20:00,59.0,46.0,29.76,South,184,7.0,7.0,62,0.00,,,0.00,Wunderground v.1.15,2013-09-30 06:20:00,
2013-09-30 01:21:00,58.9,45.0,29.75,SSE,159,10.0,10.0,60,0.00,,,0.00,Wunderground v.1.15,2013-09-30 06:21:00,
2013-09-30 01:22:00,58.9,45.0,29.76,South,173,9.0,10.0,60,0.00,,,0.00,Wunderground v.1.15,2013-09-30 06:22:00,
2013-09-30 01:24:00,58.9,45.5,29.76,South,186,6.0,10.0,61,0.00,,,0.00,Wunderground v.1.15,2013-09-30 06:24:00,
2013-09-30 01:26:00,58.9,45.5,29.76,South,180,7.0,10.0,61,0.00,,,0.00,Wunderground v.1.15,2013-09-30 06:26:00,
2013-09-30 01:28:00,58.8,45.4,29.75,SSE,165,7.0,10.0,61,0.00,,,0.00,Wunderground v.1.15,2013-09-30 06:28:00,
2013-09-30 01:30:00,58.7,45.3,29.75,SSE,159,9.0,9.0,61,0.00,,,0.00,Wunderground v.1.15,2013-09-30 06:30:00,
2013-09-30 01:34:00,58.7,45.3,29.75,South,179,7.0,9.0,61,0.00,,,0.00,Wunderground v.1.15,2013-09-30 06:34:00,
2013-09-30 01:36:00,58.6,45.6,29.75,South,187,6.0,9.0,62,0.00,,,0.00,Wunderground v.1.15,2013-09-30 06:36:00,
2013-09-30 01:39:00,58.5,45.5,29.75,South,190,8.0,9.0,62,0.00,,,0.00,Wunderground v.1.15,2013-09-30 06:39:00,
2013-09-30 01:41:00,58.4,45.4,29.75,South,174,8.0,8.0,62,0.00,,,0.00,Wunderground v.1.15,2013-09-30 06:41:00,
2013-09-30 01:42:00,58.4,45.4,29.75,South,180,8.0,8.0,62,0.00,,,0.00,Wunderground v.1.15,2013-09-30 06:42:00,
2013-09-30 01:43:00,58.4,45.4,29.75,South,178,8.0,8.0,62,0.00,,,0.00,Wunderground v.1.15,2013-09-30 06:43:00,
2013-09-30 01:47:00,58.3,45.3,29.76,South,169,7.0,10.0,62,0.00,,,0.00,Wunderground v.1.15,2013-09-30 06:47:00,
2013-09-30 01:48:00,58.3,45.3,29.75,South,181,5.0,10.0,62,0.00,,,0.00,Wunderground v.1.15,2013-09-30 06:48:00,
2013-09-30 01:49:00,58.2,45.7,29.76,South,169,6.0,8.0,63,0.00,,,0.00,Wunderground v.1.15,2013-09-30 06:49:00,
2013-09-30 01:54:00,58.1,45.6,29.75,South,175,10.0,10.0,63,0.00,,,0.00,Wunderground v.1.15,2013-09-30 06:54:00,
2013-09-30 01:55:00,58.0,45.5,29.75,SSE,161,7.0,10.0,63,0.00,,,0.00,Wunderground v.1.15,2013-09-30 06:55:00,
2013-09-30 02:00:00,57.8,45.7,29.76,SSE,163,7.0,7.0,64,0.00,,,0.00,Wunderground v.1.15,2013-09-30 07:00:00,
2013-09-30 02:01:00,57.8,45.7,29.76,South,178,4.0,7.0,64,0.00,,,0.00,Wunderground v.1.15,2013-09-30 07:01:00,
2013-09-30 02:05:00,57.8,45.7,29.76,South,181,5.0,9.0,64,0.00,,,0.00,Wunderground v.1.15,2013-09-30 07:05:00,
2013-09-30 02:06:00,57.8,45.7,29.76,South,169,5.0,9.0,64,0.00,,,0.00,Wunderground v.1.15,2013-09-30 07:06:00,
2013-09-30 02:07:00,57.8,45.7,29.76,SSE,166,5.0,9.0,64,0.00,,,0.00,Wunderground v.1.15,2013-09-30 07:07:00,
2013-09-30 02:11:00,57.8,45.7,29.76,South,183,6.0,8.0,64,0.00,,,0.00,Wunderground v.1.15,2013-09-30 07:11:00,
2013-09-30 02:12:00,57.8,45.7,29.76,South,172,5.0,8.0,64,0.00,,,0.00,Wunderground v.1.15,2013-09-30 07:12:00,
2013-09-30 02:15:00,57.8,45.7,29.76,South,176,6.0,9.0,64,0.00,,,0.00,Wunderground v.1.15,2013-09-30 07:15:00,
2013-09-30 02:16:00,57.8,45.7,29.76,South,173,5.0,9.0,64,0.00,,,0.00,Wunderground v.1.15,2013-09-30 07:16:00,
2013-09-30 02:17:00,57.8,45.7,29.76,SSE,168,8.0,9.0,64,0.00,,,0.00,Wunderground v.1.15,2013-09-30 07:17:00,
2013-09-30 02:20:00,57.7,45.6,29.75,South,178,7.0,8.0,64,0.00,,,0.00,Wunderground v.1.15,2013-09-30 07:20:00,
2013-09-30 02:22:00,57.7,45.6,29.75,South,169,7.0,8.0,64,0.00,,,0.00,Wunderground v.1.15,2013-09-30 07:22:00,
2013-09-30 02:26:00,57.5,45.8,29.75,South,170,7.0,12.0,65,0.00,,,0.00,Wunderground v.1.15,2013-09-30 07:26:00,
2013-09-30 02:27:00,57.5,45.8,29.75,SSE,161,7.0,12.0,65,0.00,,,0.00,Wunderground v.1.15,2013-09-30 07:27:00,
2013-09-30 02:28:00,57.5,45.8,29.75,SSE,164,6.0,12.0,65,0.00,,,0.00,Wunderground v.1.15,2013-09-30 07:28:00,
2013-09-30 02:31:00,57.3,45.6,29.75,South,169,7.0,8.0,65,0.00,,,0.00,Wunderground v.1.15,2013-09-30 07:31:00,
2013-09-30 02:32:00,57.3,45.6,29.75,South,178,5.0,8.0,65,0.00,,,0.00,Wunderground v.1.15,2013-09-30 07:32:00,
2013-09-30 02:33:00,57.3,45.6,29.75,South,171,5.0,8.0,65,0.00,,,0.00,Wunderground v.1.15,2013-09-30 07:33:00,
2013-09-30 02:37:00,57.2,45.5,29.74,SSE,167,5.0,9.0,65,0.00,,,0.00,Wunderground v.1.15,2013-09-30 07:37:00,
2013-09-30 02:38:00,57.2,45.9,29.74,South,172,11.0,11.0,66,0.00,,,0.00,Wunderground v.1.15,2013-09-30 07:38:00,
2013-09-30 02:39:00,57.2,45.9,29.74,South,171,6.0,11.0,66,0.00,,,0.00,Wunderground v.1.15,2013-09-30 07:39:00,
2013-09-30 02:42:00,57.1,45.8,29.74,South,170,5.0,13.0,66,0.00,,,0.00,Wunderground v.1.15,2013-09-30 07:42:00,
2013-09-30 02:43:00,57.1,45.8,29.74,South,178,10.0,13.0,66,0.00,,,0.00,Wunderground v.1.15,2013-09-30 07:43:00,
2013-09-30 02:44:00,57.1,45.8,29.74,SSE,166,5.0,13.0,66,0.00,,,0.00,Wunderground v.1.15,2013-09-30 07:44:00,
2013-09-30 02:47:00,57.1,45.8,29.74,South,171,5.0,13.0,66,0.00,,,0.00,Wunderground v.1.15,2013-09-30 07:47:00,
2013-09-30 02:48:00,57.1,45.8,29.74,SSE,160,6.0,13.0,66,0.00,,,0.00,Wunderground v.1.15,2013-09-30 07:48:00,
2013-09-30 02:49:00,57.1,45.8,29.74,South,173,6.0,13.0,66,0.00,,,0.00,Wunderground v.1.15,2013-09-30 07:49:00,
2013-09-30 02:52:00,57.1,45.8,29.74,SSE,163,6.0,9.0,66,0.00,,,0.00,Wunderground v.1.15,2013-09-30 07:52:00,
2013-09-30 02:53:00,57.1,45.8,29.74,South,190,7.0,10.0,66,0.00,,,0.00,Wunderground v.1.15,2013-09-30 07:53:00,
2013-09-30 02:54:00,57.1,45.8,29.74,South,170,6.0,10.0,66,0.00,,,0.00,Wunderground v.1.15,2013-09-30 07:54:00,
2013-09-30 02:55:00,57.1,45.8,29.74,South,182,5.0,10.0,66,0.00,,,0.00,Wunderground v.1.15,2013-09-30 07:55:00,
2013-09-30 02:57:00,57.1,46.2,29.74,SSW,192,5.0,10.0,67,0.00,,,0.00,Wunderground v.1.15,2013-09-30 07:57:00,
2013-09-30 02:59:00,57.1,46.2,29.73,SSE,165,4.0,10.0,67,0.00,,,0.00,Wunderground v.1.15,2013-09-30 07:59:00,
2013-09-30 03:00:00,57.1,46.2,29.73,South,187,7.0,7.0,67,0.00,,,0.00,Wunderground v.1.15,2013-09-30 08:00:00,
2013-09-30 03:02:00,57.1,46.2,29.74,South,183,7.0,9.0,67,0.00,,,0.00,Wunderground v.1.15,2013-09-30 08:02:00,
2013-09-30 03:03:00,57.1,46.2,29.74,SSE,165,6.0,9.0,67,0.00,,,0.00,Wunderground v.1.15,2013-09-30 08:03:00,
2013-09-30 03:04:00,57.2,45.9,29.74,SSE,167,6.0,9.0,66,0.00,,,0.00,Wunderground v.1.15,2013-09-30 08:04:00,
2013-09-30 03:05:00,57.3,46.0,29.74,South,173,9.0,9.0,66,0.00,,,0.00,Wunderground v.1.15,2013-09-30 08:05:00,
2013-09-30 03:08:00,57.4,46.1,29.74,SSE,167,7.0,9.0,66,0.00,,,0.00,Wunderground v.1.15,2013-09-30 08:08:00,
2013-09-30 03:09:00,57.4,46.1,29.74,South,173,7.0,9.0,66,0.00,,,0.00,Wunderground v.1.15,2013-09-30 08:09:00,
2013-09-30 03:11:00,57.4,46.1,29.74,South,175,7.0,7.0,66,0.00,,,0.00,Wunderground v.1.15,2013-09-30 08:11:00,
2013-09-30 03:13:00,57.5,46.2,29.74,SSW,194,6.0,10.0,66,0.00,,,0.00,Wunderground v.1.15,2013-09-30 08:13:00,
2013-09-30 03:14:00,57.5,46.2,29.74,South,172,8.0,10.0,66,0.00,,,0.00,Wunderground v.1.15,2013-09-30 08:14:00,
2013-09-30 03:15:00,57.5,46.2,29.74,South,169,6.0,10.0,66,0.00,,,0.00,Wunderground v.1.15,2013-09-30 08:15:00,
2013-09-30 03:16:00,57.5,46.2,29.74,South,182,5.0,10.0,66,0.00,,,0.00,Wunderground v.1.15,2013-09-30 08:16:00,
2013-09-30 03:18:00,57.5,46.2,29.74,South,171,4.0,10.0,66,0.00,,,0.00,Wunderground v.1.15,2013-09-30 08:18:00,
2013-09-30 03:19:00,57.5,46.2,29.74,SSE,163,4.0,10.0,66,0.00,,,0.00,Wunderground v.1.15,2013-09-30 08:19:00,
2013-09-30 03:20:00,57.5,46.2,29.74,South,188,6.0,7.0,66,0.00,,,0.00,Wunderground v.1.15,2013-09-30 08:20:00,
2013-09-30 03:22:00,57.4,46.1,29.74,South,189,6.0,7.0,66,0.00,,,0.00,Wunderground v.1.15,2013-09-30 08:22:00,
2013-09-30 03:23:00,57.5,46.2,29.74,South,179,6.0,7.0,66,0.00,,,0.00,Wunderground v.1.15,2013-09-30 08:23:00,
2013-09-30 03:24:00,57.4,46.1,29.74,South,178,4.0,7.0,66,0.00,,,0.00,Wunderground v.1.15,2013-09-30 08:24:00,
2013-09-30 03:25:00,57.4,46.5,29.74,South,181,5.0,9.0,67,0.00,,,0.00,Wunderground v.1.15,2013-09-30 08:25:00,
2013-09-30 03:27:00,57.4,46.5,29.74,South,190,5.0,10.0,67,0.00,,,0.00,Wunderground v.1.15,2013-09-30 08:27:00,
2013-09-30 03:28:00,57.3,46.4,29.74,South,180,4.0,10.0,67,0.00,,,0.00,Wunderground v.1.15,2013-09-30 08:28:00,
2013-09-30 03:29:00,57.3,46.4,29.74,South,182,6.0,10.0,67,0.00,,,0.00,Wunderground v.1.15,2013-09-30 08:29:00,
2013-09-30 03:30:00,57.3,46.4,29.74,South,184,5.0,9.0,67,0.00,,,0.00,Wunderground v.1.15,2013-09-30 08:30:00,
2013-09-30 03:31:00,57.3,46.4,29.74,SSW,192,3.0,9.0,67,0.00,,,0.00,Wunderground v.1.15,2013-09-30 08:31:00,
2013-09-30 03:33:00,57.3,46.4,29.73,South,188,4.0,9.0,67,0.00,,,0.00,Wunderground v.1.15,2013-09-30 08:33:00,
2013-09-30 03:34:00,57.2,46.3,29.73,SSE,168,4.0,9.0,67,0.00,,,0.00,Wunderground v.1.15,2013-09-30 08:34:00,
2013-09-30 03:35:00,57.2,46.3,29.73,South,175,5.0,9.0,67,0.00,,,0.00,Wunderground v.1.15,2013-09-30 08:35:00,
2013-09-30 03:36:00,57.2,46.3,29.73,SSE,162,8.0,9.0,67,0.00,,,0.00,Wunderground v.1.15,2013-09-30 08:36:00,
2013-09-30 03:38:00,57.1,46.6,29.73,South,180,5.0,10.0,68,0.00,,,0.00,Wunderground v.1.15,2013-09-30 08:38:00,
2013-09-30 03:40:00,57.0,46.5,29.72,SSW,195,4.0,6.0,68,0.00,,,0.00,Wunderground v.1.15,2013-09-30 08:40:00,
2013-09-30 03:41:00,57.0,46.5,29.72,SSE,163,8.0,8.0,68,0.00,,,0.00,Wunderground v.1.15,2013-09-30 08:41:00,
2013-09-30 03:42:00,57.0,46.5,29.72,SSE,159,6.0,8.0,68,0.00,,,0.00,Wunderground v.1.15,2013-09-30 08:42:00,
2013-09-30 03:43:00,57.0,46.5,29.72,South,172,5.0,9.0,68,0.00,,,0.00,Wunderground v.1.15,2013-09-30 08:43:00,
2013-09-30 03:45:00,56.9,46.4,29.72,South,171,6.0,9.0,68,0.00,,,0.00,Wunderground v.1.15,2013-09-30 08:45:00,
2013-09-30 03:46:00,56.8,46.3,29.72,South,179,5.0,9.0,68,0.00,,,0.00,Wunderground v.1.15,2013-09-30 08:46:00,
2013-09-30 03:47:00,56.8,46.3,29.72,South,191,5.0,9.0,68,0.00,,,0.00,Wunderground v.1.15,2013-09-30 08:47:00,
2013-09-30 03:49:00,56.6,46.5,29.72,SSE,167,5.0,9.0,69,0.00,,,0.00,Wunderground v.1.15,2013-09-30 08:49:00,
2013-09-30 03:50:00,56.5,46.4,29.72,South,175,6.0,7.0,69,0.00,,,0.00,Wunderground v.1.15,2013-09-30 08:50:00,
2013-09-30 03:51:00,56.5,46.4,29.72,SSE,163,6.0,7.0,69,0.00,,,0.00,Wunderground v.1.15,2013-09-30 08:51:00,
2013-09-30 03:52:00,56.4,46.4,29.72,SSE,167,4.0,7.0,69,0.00,,,0.00,Wunderground v.1.15,2013-09-30 08:52:00,
2013-09-30 03:54:00,56.3,46.3,29.72,SSE,167,6.0,7.0,69,0.00,,,0.00,Wunderground v.1.15,2013-09-30 08:54:00,
2013-09-30 03:55:00,56.3,46.3,29.72,SSE,160,6.0,7.0,69,0.00,,,0.00,Wunderground v.1.15,2013-09-30 08:55:00,
2013-09-30 03:56:00,56.3,46.6,29.71,South,178,5.0,7.0,70,0.00,,,0.00,Wunderground v.1.15,2013-09-30 08:56:00,
2013-09-30 03:57:00,56.2,46.5,29.72,South,180,7.0,7.0,70,0.00,,,0.00,Wunderground v.1.15,2013-09-30 08:57:00,
2013-09-30 04:00:00,56.2,46.5,29.72,South,174,5.0,7.0,70,0.00,,,0.00,Wunderground v.1.15,2013-09-30 09:00:00,
2013-09-30 04:02:00,56.3,46.6,29.72,SSW,192,5.0,8.0,70,0.00,,,0.00,Wunderground v.1.15,2013-09-30 09:02:00,
2013-09-30 04:03:00,56.3,46.6,29.71,South,174,5.0,8.0,70,0.00,,,0.00,Wunderground v.1.15,2013-09-30 09:03:00,
2013-09-30 04:05:00,56.3,46.6,29.72,SSE,163,6.0,8.0,70,0.00,,,0.00,Wunderground v.1.15,2013-09-30 09:05:00,
2013-09-30 04:07:00,56.3,46.6,29.71,South,174,7.0,8.0,70,0.00,,,0.00,Wunderground v.1.15,2013-09-30 09:07:00,
2013-09-30 04:08:00,56.3,46.6,29.71,South,178,6.0,8.0,70,0.00,,,0.00,Wunderground v.1.15,2013-09-30 09:08:00,
2013-09-30 04:10:00,56.3,46.6,29.71,SSE,153,9.0,9.0,70,0.00,,,0.00,Wunderground v.1.15,2013-09-30 09:10:00,
2013-09-30 04:12:00,56.2,46.5,29.71,SSE,167,6.0,10.0,70,0.00,,,0.00,Wunderground v.1.15,2013-09-30 09:12:00,
2013-09-30 04:14:00,56.3,46.6,29.71,South,180,4.0,10.0,70,0.00,,,0.00,Wunderground v.1.15,2013-09-30 09:14:00,
2013-09-30 04:15:00,56.3,46.6,29.71,South,182,4.0,10.0,70,0.00,,,0.00,Wunderground v.1.15,2013-09-30 09:15:00,
2013-09-30 04:18:00,56.2,46.9,29.71,South,188,5.0,10.0,71,0.00,,,0.00,Wunderground v.1.15,2013-09-30 09:18:00,
2013-09-30 04:19:00,56.2,46.9,29.72,South,185,6.0,10.0,71,0.00,,,0.00,Wunderground v.1.15,2013-09-30 09:19:00,
2013-09-30 04:20:00,56.2,46.9,29.71,South,176,4.0,7.0,71,0.00,,,0.00,Wunderground v.1.15,2013-09-30 09:20:00,
2013-09-30 04:21:00,56.2,46.9,29.71,South,188,7.0,8.0,71,0.00,,,0.00,Wunderground v.1.15,2013-09-30 09:21:00,
2013-09-30 04:24:00,56.2,46.9,29.71,SSE,164,7.0,13.0,71,0.00,,,0.00,Wunderground v.1.15,2013-09-30 09:24:00,
2013-09-30 04:25:00,56.2,46.9,29.72,South,173,6.0,13.0,71,0.00,,,0.00,Wunderground v.1.15,2013-09-30 09:25:00,
2013-09-30 04:26:00,56.2,46.9,29.71,South,170,6.0,13.0,71,0.00,,,0.00,Wunderground v.1.15,2013-09-30 09:26:00,
2013-09-30 04:27:00,56.2,46.9,29.71,South,175,8.0,13.0,71,0.00,,,0.00,Wunderground v.1.15,2013-09-30 09:27:00,
2013-09-30 04:29:00,56.2,46.9,29.71,South,174,5.0,13.0,71,0.00,,,0.00,Wunderground v.1.15,2013-09-30 09:29:00,
2013-09-30 04:30:00,56.1,46.8,29.71,SSW,196,6.0,7.0,71,0.00,,,0.00,Wunderground v.1.15,2013-09-30 09:30:00,
2013-09-30 04:32:00,56.0,46.7,29.71,South,174,5.0,7.0,71,0.00,,,0.00,Wunderground v.1.15,2013-09-30 09:32:00,
2013-09-30 04:33:00,56.0,46.7,29.71,South,175,4.0,7.0,71,0.00,,,0.00,Wunderground v.1.15,2013-09-30 09:33:00,
2013-09-30 04:34:00,56.0,46.7,29.71,SSE,166,6.0,8.0,71,0.00,,,0.00,Wunderground v.1.15,2013-09-30 09:34:00,
2013-09-30 04:35:00,56.0,46.7,29.71,South,170,4.0,10.0,71,0.00,,,0.00,Wunderground v.1.15,2013-09-30 09:35:00,
2013-09-30 04:37:00,55.9,47.0,29.71,SSW,192,5.0,10.0,72,0.00,,,0.00,Wunderground v.1.15,2013-09-30 09:37:00,
2013-09-30 04:38:00,55.8,46.9,29.71,South,174,7.0,10.0,72,0.00,,,0.00,Wunderground v.1.15,2013-09-30 09:38:00,
2013-09-30 04:39:00,55.8,46.9,29.71,South,184,4.0,10.0,72,0.00,,,0.00,Wunderground v.1.15,2013-09-30 09:39:00,
2013-09-30 04:40:00,55.8,46.9,29.71,South,186,3.0,6.0,72,0.00,,,0.00,Wunderground v.1.15,2013-09-30 09:40:00,
2013-09-30 04:41:00,55.8,46.9,29.71,SSE,165,5.0,6.0,72,0.00,,,0.00,Wunderground v.1.15,2013-09-30 09:41:00,
2013-09-30 04:43:00,55.8,46.9,29.71,South,178,5.0,10.0,72,0.00,,,0.00,Wunderground v.1.15,2013-09-30 09:43:00,
2013-09-30 04:44:00,55.8,46.9,29.71,South,183,6.0,10.0,72,0.00,,,0.00,Wunderground v.1.15,2013-09-30 09:44:00,
2013-09-30 04:45:00,55.8,46.9,29.71,SSE,161,7.0,10.0,72,0.00,,,0.00,Wunderground v.1.15,2013-09-30 09:45:00,
2013-09-30 04:46:00,55.8,46.9,29.71,South,177,5.0,10.0,72,0.00,,,0.00,Wunderground v.1.15,2013-09-30 09:46:00,
2013-09-30 04:49:00,55.8,46.9,29.71,South,173,5.0,10.0,72,0.00,,,0.00,Wunderground v.1.15,2013-09-30 09:49:00,
2013-09-30 04:50:00,55.8,46.9,29.71,South,187,7.0,8.0,72,0.00,,,0.00,Wunderground v.1.15,2013-09-30 09:50:00,
2013-09-30 04:51:00,55.7,46.8,29.71,South,171,7.0,8.0,72,0.00,,,0.00,Wunderground v.1.15,2013-09-30 09:51:00,
2013-09-30 04:54:00,55.6,47.1,29.71,SSE,162,5.0,8.0,73,0.00,,,0.00,Wunderground v.1.15,2013-09-30 09:54:00,
2013-09-30 04:55:00,55.6,47.1,29.71,South,177,5.0,9.0,73,0.00,,,0.00,Wunderground v.1.15,2013-09-30 09:55:00,
2013-09-30 04:56:00,55.6,47.1,29.71,South,173,4.0,9.0,73,0.00,,,0.00,Wunderground v.1.15,2013-09-30 09:56:00,
2013-09-30 04:57:00,55.6,47.1,29.71,South,184,6.0,9.0,73,0.00,,,0.00,Wunderground v.1.15,2013-09-30 09:57:00,
2013-09-30 05:00:00,55.5,47.0,29.71,South,178,6.0,6.0,73,0.00,,,0.00,Wunderground v.1.15,2013-09-30 10:00:00,
2013-09-30 05:01:00,55.5,47.0,29.71,South,172,6.0,7.0,73,0.00,,,0.00,Wunderground v.1.15,2013-09-30 10:01:00,
2013-09-30 05:02:00,55.4,46.9,29.71,South,182,3.0,8.0,73,0.00,,,0.00,Wunderground v.1.15,2013-09-30 10:02:00,
2013-09-30 05:05:00,55.4,47.2,29.71,South,180,4.0,8.0,74,0.00,,,0.00,Wunderground v.1.15,2013-09-30 10:05:00,
2013-09-30 05:06:00,55.4,47.2,29.71,South,171,6.0,8.0,74,0.00,,,0.00,Wunderground v.1.15,2013-09-30 10:06:00,
2013-09-30 05:07:00,55.4,47.2,29.71,SSE,157,10.0,10.0,74,0.00,,,0.00,Wunderground v.1.15,2013-09-30 10:07:00,
2013-09-30 05:10:00,55.3,47.2,29.71,SSW,192,5.0,7.0,74,0.00,,,0.00,Wunderground v.1.15,2013-09-30 10:10:00,
2013-09-30 05:11:00,55.3,47.2,29.71,SSE,163,6.0,7.0,74,0.00,,,0.00,Wunderground v.1.15,2013-09-30 10:11:00,
2013-09-30 05:12:00,55.3,47.2,29.71,South,170,6.0,7.0,74,0.00,,,0.00,Wunderground v.1.15,2013-09-30 10:12:00,
2013-09-30 05:15:00,55.1,47.0,29.71,SSW,203,5.0,8.0,74,0.00,,,0.00,Wunderground v.1.15,2013-09-30 10:15:00,
2013-09-30 05:17:00,55.2,47.1,29.71,SSE,158,7.0,9.0,74,0.00,,,0.00,Wunderground v.1.15,2013-09-30 10:17:00,
2013-09-30 05:18:00,55.2,47.1,29.70,SSW,193,5.0,9.0,74,0.00,,,0.00,Wunderground v.1.15,2013-09-30 10:18:00,
2013-09-30 05:21:00,55.2,47.1,29.70,South,175,6.0,7.0,74,0.00,,,0.00,Wunderground v.1.15,2013-09-30 10:21:00,
2013-09-30 05:22:00,55.1,47.0,29.70,South,169,7.0,7.0,74,0.00,,,0.00,Wunderground v.1.15,2013-09-30 10:22:00,
2013-09-30 05:23:00,55.1,47.3,29.70,SSE,148,6.0,8.0,75,0.00,,,0.00,Wunderground v.1.15,2013-09-30 10:23:00,
2013-09-30 05:26:00,55.0,47.2,29.70,SSE,165,8.0,11.0,75,0.00,,,0.00,Wunderground v.1.15,2013-09-30 10:26:00,
2013-09-30 05:27:00,55.0,47.2,29.70,SE,144,6.0,11.0,75,0.00,,,0.00,Wunderground v.1.15,2013-09-30 10:27:00,
2013-09-30 05:28:00,55.0,47.2,29.70,South,187,5.0,11.0,75,0.00,,,0.00,Wunderground v.1.15,2013-09-30 10:28:00,
2013-09-30 05:32:00,55.0,47.2,29.70,South,186,5.0,10.0,75,0.00,,,0.00,Wunderground v.1.15,2013-09-30 10:32:00,
2013-09-30 05:33:00,55.1,47.3,29.70,SSW,193,5.0,10.0,75,0.00,,,0.00,Wunderground v.1.15,2013-09-30 10:33:00,
2013-09-30 05:37:00,55.1,47.3,29.69,South,181,7.0,10.0,75,0.00,,,0.00,Wunderground v.1.15,2013-09-30 10:37:00,
2013-09-30 05:38:00,55.1,47.3,29.70,SSW,200,5.0,11.0,75,0.00,,,0.00,Wunderground v.1.15,2013-09-30 10:38:00,
2013-09-30 05:39:00,55.1,47.3,29.69,South,175,6.0,11.0,75,0.00,,,0.00,Wunderground v.1.15,2013-09-30 10:39:00,
2013-09-30 05:42:00,55.2,47.4,29.69,SSW,196,6.0,9.0,75,0.00,,,0.00,Wunderground v.1.15,2013-09-30 10:42:00,
2013-09-30 05:43:00,55.2,47.4,29.69,South,177,5.0,9.0,75,0.00,,,0.00,Wunderground v.1.15,2013-09-30 10:43:00,
2013-09-30 05:44:00,55.2,47.4,29.69,South,190,5.0,9.0,75,0.00,,,0.00,Wunderground v.1.15,2013-09-30 10:44:00,
2013-09-30 05:48:00,55.2,47.4,29.69,South,178,6.0,9.0,75,0.00,,,0.00,Wunderground v.1.15,2013-09-30 10:48:00,
2013-09-30 05:49:00,55.2,47.4,29.69,South,190,7.0,10.0,75,0.00,,,0.00,Wunderground v.1.15,2013-09-30 10:49:00,
2013-09-30 05:50:00,55.2,47.4,29.69,South,175,6.0,7.0,75,0.00,,,0.00,Wunderground v.1.15,2013-09-30 10:50:00,
2013-09-30 05:53:00,55.1,47.3,29.69,South,186,6.0,8.0,75,0.00,,,0.00,Wunderground v.1.15,2013-09-30 10:53:00,
2013-09-30 05:54:00,55.1,47.3,29.69,South,174,8.0,10.0,75,0.00,,,0.00,Wunderground v.1.15,2013-09-30 10:54:00,
2013-09-30 05:57:00,55.1,47.3,29.69,South,186,6.0,11.0,75,0.00,,,0.00,Wunderground v.1.15,2013-09-30 10:57:00,
2013-09-30 05:58:00,55.2,47.4,29.69,SSE,165,6.0,11.0,75,0.00,,,0.00,Wunderground v.1.15,2013-09-30 10:58:00,
2013-09-30 05:59:00,55.2,47.4,29.69,SSE,168,7.0,11.0,75,0.00,,,0.00,Wunderground v.1.15,2013-09-30 10:59:00,
2013-09-30 06:00:00,55.2,47.4,29.69,SSE,168,8.0,10.0,75,0.00,,,0.00,Wunderground v.1.15,2013-09-30 11:00:00,
2013-09-30 06:03:00,55.2,47.4,29.69,SSE,163,9.0,10.0,75,0.00,,,0.00,Wunderground v.1.15,2013-09-30 11:03:00,
2013-09-30 06:04:00,55.2,47.4,29.68,South,182,6.0,10.0,75,0.00,,,0.00,Wunderground v.1.15,2013-09-30 11:04:00,
2013-09-30 06:05:00,55.2,47.4,29.68,SSE,153,12.0,12.0,75,0.00,,,0.00,Wunderground v.1.15,2013-09-30 11:05:00,
2013-09-30 06:08:00,55.2,47.4,29.68,SSE,166,7.0,12.0,75,0.00,,,0.00,Wunderground v.1.15,2013-09-30 11:08:00,
2013-09-30 06:09:00,55.2,47.4,29.68,South,182,5.0,12.0,75,0.00,,,0.00,Wunderground v.1.15,2013-09-30 11:09:00,
2013-09-30 06:10:00,55.2,47.4,29.68,SSE,168,7.0,8.0,75,0.00,,,0.00,Wunderground v.1.15,2013-09-30 11:10:00,
2013-09-30 06:14:00,55.2,47.4,29.68,South,187,5.0,10.0,75,0.00,,,0.00,Wunderground v.1.15,2013-09-30 11:14:00,
2013-09-30 06:15:00,55.2,47.4,29.68,South,183,7.0,11.0,75,0.00,,,0.00,Wunderground v.1.15,2013-09-30 11:15:00,
2013-09-30 06:19:00,55.3,47.5,29.68,SSE,167,6.0,11.0,75,0.00,,,0.00,Wunderground v.1.15,2013-09-30 11:19:00,
2013-09-30 06:20:00,55.3,47.5,29.68,South,178,8.0,10.0,75,0.00,,,0.00,Wunderground v.1.15,2013-09-30 11:20:00,
2013-09-30 06:21:00,55.3,47.5,29.68,South,171,6.0,10.0,75,0.00,,,0.00,Wunderground v.1.15,2013-09-30 11:21:00,
2013-09-30 06:24:00,55.1,47.3,29.68,SSE,158,8.0,12.0,75,0.00,,,0.00,Wunderground v.1.15,2013-09-30 11:24:00,
2013-09-30 06:26:00,55.2,47.4,29.68,South,184,7.0,12.0,75,0.00,,,0.00,Wunderground v.1.15,2013-09-30 11:26:00,
2013-09-30 06:29:00,55.3,47.5,29.67,South,183,6.0,13.0,75,0.00,,,0.00,Wunderground v.1.15,2013-09-30 11:29:00,
2013-09-30 06:31:00,55.3,47.5,29.67,South,175,8.0,10.0,75,0.00,,,0.00,Wunderground v.1.15,2013-09-30 11:31:00,
2013-09-30 06:35:00,55.3,47.5,29.67,SSW,209,7.0,10.0,75,0.00,,,0.00,Wunderground v.1.15,2013-09-30 11:35:00,
2013-09-30 06:36:00,55.4,47.2,29.67,South,169,7.0,10.0,74,0.00,,,0.00,Wunderground v.1.15,2013-09-30 11:36:00,
2013-09-30 06:37:00,55.4,47.2,29.67,SSE,163,6.0,10.0,74,0.00,,,0.00,Wunderground v.1.15,2013-09-30 11:37:00,
2013-09-30 06:40:00,55.4,47.2,29.67,SSW,198,5.0,9.0,74,0.00,,,0.00,Wunderground v.1.15,2013-09-30 11:40:00,
2013-09-30 06:41:00,55.4,47.2,29.67,South,180,6.0,9.0,74,0.00,,,0.00,Wunderground v.1.15,2013-09-30 11:41:00,
2013-09-30 06:42:00,55.4,47.2,29.67,South,190,7.0,9.0,74,0.00,,,0.00,Wunderground v.1.15,2013-09-30 11:42:00,
2013-09-30 06:45:00,55.4,47.2,29.67,South,176,9.0,10.0,74,0.00,,,0.00,Wunderground v.1.15,2013-09-30 11:45:00,
2013-09-30 06:47:00,55.4,47.2,29.68,South,189,5.0,10.0,74,0.00,,,0.00,Wunderground v.1.15,2013-09-30 11:47:00,
2013-09-30 06:49:00,55.4,47.2,29.67,South,182,7.0,10.0,74,0.00,,,0.00,Wunderground v.1.15,2013-09-30 11:49:00,
2013-09-30 06:50:00,55.5,47.3,29.68,South,170,9.0,9.0,74,0.00,,,0.00,Wunderground v.1.15,2013-09-30 11:50:00,
2013-09-30 06:51:00,55.5,47.3,29.68,South,175,7.0,12.0,74,0.00,,,0.00,Wunderground v.1.15,2013-09-30 11:51:00,
2013-09-30 06:52:00,55.5,47.3,29.68,South,178,8.0,12.0,74,0.00,,,0.00,Wunderground v.1.15,2013-09-30 11:52:00,
2013-09-30 06:55:00,55.5,47.3,29.68,South,188,5.0,12.0,74,0.00,,,0.00,Wunderground v.1.15,2013-09-30 11:55:00,
2013-09-30 06:57:00,55.5,47.3,29.68,South,189,5.0,12.0,74,0.00,,,0.00,Wunderground v.1.15,2013-09-30 11:57:00,
2013-09-30 07:01:00,55.5,47.3,29.68,South,172,6.0,8.0,74,0.00,,,0.00,Wunderground v.1.15,2013-09-30 12:01:00,
2013-09-30 07:02:00,55.5,47.3,29.68,South,185,6.0,8.0,74,0.00,,,0.00,Wunderground v.1.15,2013-09-30 12:02:00,
2013-09-30 07:03:00,55.5,47.3,29.68,South,174,7.0,8.0,74,0.00,,,0.00,Wunderground v.1.15,2013-09-30 12:03:00,
2013-09-30 07:06:00,55.5,47.3,29.68,SSE,166,7.0,10.0,74,0.00,,,0.00,Wunderground v.1.15,2013-09-30 12:06:00,
2013-09-30 07:07:00,55.5,47.3,29.68,South,177,7.0,10.0,74,0.00,,,0.00,Wunderground v.1.15,2013-09-30 12:07:00,
2013-09-30 07:08:00,55.5,47.3,29.68,South,182,5.0,10.0,74,0.00,,,0.00,Wunderground v.1.15,2013-09-30 12:08:00,
2013-09-30 07:12:00,55.5,47.3,29.68,South,176,5.0,9.0,74,0.00,,,0.00,Wunderground v.1.15,2013-09-30 12:12:00,
2013-09-30 07:13:00,55.4,47.2,29.68,South,172,7.0,11.0,74,0.00,,,0.00,Wunderground v.1.15,2013-09-30 12:13:00,
2013-09-30 07:14:00,55.4,47.2,29.68,South,183,5.0,11.0,74,0.00,,,0.00,Wunderground v.1.15,2013-09-30 12:14:00,
2013-09-30 07:17:00,55.4,47.2,29.68,South,169,2.0,11.0,74,0.00,,,0.00,Wunderground v.1.15,2013-09-30 12:17:00,
2013-09-30 07:18:00,55.4,47.2,29.68,South,177,6.0,11.0,74,0.00,,,0.00,Wunderground v.1.15,2013-09-30 12:18:00,
2013-09-30 07:19:00,55.4,47.2,29.68,South,186,6.0,11.0,74,0.00,,,0.00,Wunderground v.1.15,2013-09-30 12:19:00,
2013-09-30 07:23:00,55.3,47.2,29.68,SSE,167,7.0,9.0,74,0.00,,,0.00,Wunderground v.1.15,2013-09-30 12:23:00,
2013-09-30 07:24:00,55.3,47.5,29.68,South,171,7.0,9.0,75,0.00,,,0.00,Wunderground v.1.15,2013-09-30 12:24:00,
2013-09-30 07:28:00,55.2,47.4,29.68,SSE,155,7.0,11.0,75,0.00,,,0.00,Wunderground v.1.15,2013-09-30 12:28:00,
2013-09-30 07:29:00,55.2,47.4,29.68,South,172,8.0,11.0,75,0.00,,,0.00,Wunderground v.1.15,2013-09-30 12:29:00,
2013-09-30 07:33:00,55.3,47.5,29.67,SSE,157,10.0,11.0,75,0.00,,,0.00,Wunderground v.1.15,2013-09-30 12:33:00,
2013-09-30 07:34:00,55.2,47.4,29.67,SSE,163,7.0,11.0,75,0.00,,,0.00,Wunderground v.1.15,2013-09-30 12:34:00,
2013-09-30 07:35:00,55.3,47.5,29.68,South,169,9.0,11.0,75,0.00,,,0.00,Wunderground v.1.15,2013-09-30 12:35:00,
2013-09-30 07:38:00,55.4,47.6,29.67,South,173,8.0,11.0,75,0.00,,,0.00,Wunderground v.1.15,2013-09-30 12:38:00,
2013-09-30 07:39:00,55.4,47.6,29.67,SSE,168,6.0,11.0,75,0.00,,,0.00,Wunderground v.1.15,2013-09-30 12:39:00,
2013-09-30 07:40:00,55.4,47.6,29.67,South,172,7.0,8.0,75,0.00,,,0.00,Wunderground v.1.15,2013-09-30 12:40:00,
2013-09-30 07:43:00,55.4,47.6,29.67,South,182,6.0,9.0,75,0.00,,,0.00,Wunderground v.1.15,2013-09-30 12:43:00,
2013-09-30 07:44:00,55.4,47.6,29.67,SSE,165,5.0,9.0,75,0.00,,,0.00,Wunderground v.1.15,2013-09-30 12:44:00,
2013-09-30 07:45:00,55.3,47.5,29.67,South,171,7.0,9.0,75,0.00,,,0.00,Wunderground v.1.15,2013-09-30 12:45:00,
2013-09-30 07:46:00,55.3,47.5,29.67,South,179,8.0,9.0,75,0.00,,,0.00,Wunderground v.1.15,2013-09-30 12:46:00,
2013-09-30 07:49:00,55.4,47.6,29.67,South,171,8.0,11.0,75,0.00,,,0.00,Wunderground v.1.15,2013-09-30 12:49:00,
2013-09-30 07:50:00,55.4,47.6,29.67,South,169,9.0,9.0,75,0.00,,,0.00,Wunderground v.1.15,2013-09-30 12:50:00,
2013-09-30 07:52:00,55.5,47.7,29.67,South,180,6.0,10.0,75,0.00,,,0.00,Wunderground v.1.15,2013-09-30 12:52:00,
2013-09-30 07:55:00,55.6,47.8,29.67,South,179,8.0,11.0,75,0.00,,,0.00,Wunderground v.1.15,2013-09-30 12:55:00,
2013-09-30 07:56:00,55.6,47.8,29.67,South,178,8.0,11.0,75,0.00,,,0.00,Wunderground v.1.15,2013-09-30 12:56:00,
2013-09-30 07:57:00,55.6,47.8,29.67,South,174,8.0,11.0,75,0.00,,,0.00,Wunderground v.1.15,2013-09-30 12:57:00,
2013-09-30 08:00:00,55.7,47.5,29.67,South,183,8.0,12.0,74,0.00,,,0.00,Wunderground v.1.15,2013-09-30 13:00:00,
2013-09-30 08:01:00,55.8,47.6,29.67,SSW,205,8.0,12.0,74,0.00,,,0.00,Wunderground v.1.15,2013-09-30 13:01:00,
2013-09-30 08:03:00,55.9,47.7,29.67,South,176,7.0,12.0,74,0.00,,,0.00,Wunderground v.1.15,2013-09-30 13:03:00,
2013-09-30 08:06:00,56.0,47.8,29.67,SSE,162,8.0,13.0,74,0.00,,,0.00,Wunderground v.1.15,2013-09-30 13:06:00,
2013-09-30 08:08:00,56.2,48.0,29.67,South,170,5.0,13.0,74,0.00,,,0.00,Wunderground v.1.15,2013-09-30 13:08:00,
2013-09-30 08:11:00,56.3,47.8,29.67,South,172,5.0,8.0,73,0.00,,,0.00,Wunderground v.1.15,2013-09-30 13:11:00,
2013-09-30 08:12:00,56.4,47.9,29.67,South,183,5.0,8.0,73,0.00,,,0.00,Wunderground v.1.15,2013-09-30 13:12:00,
2013-09-30 08:14:00,56.5,47.9,29.67,South,169,5.0,8.0,73,0.00,,,0.00,Wunderground v.1.15,2013-09-30 13:14:00,
2013-09-30 08:16:00,56.6,48.0,29.67,South,184,6.0,8.0,73,0.00,,,0.00,Wunderground v.1.15,2013-09-30 13:16:00,
2013-09-30 08:17:00,56.7,48.1,29.67,South,186,3.0,8.0,73,0.00,,,0.00,Wunderground v.1.15,2013-09-30 13:17:00,
2013-09-30 08:19:00,56.8,48.2,29.67,South,184,5.0,7.0,73,0.00,,,0.00,Wunderground v.1.15,2013-09-30 13:19:00,
2013-09-30 08:21:00,56.8,47.9,29.67,SSE,163,7.0,9.0,72,0.00,,,0.00,Wunderground v.1.15,2013-09-30 13:21:00,
2013-09-30 08:22:00,56.8,47.9,29.67,South,182,6.0,9.0,72,0.00,,,0.00,Wunderground v.1.15,2013-09-30 13:22:00,
2013-09-30 08:25:00,56.9,48.0,29.67,South,179,5.0,14.0,72,0.00,,,0.00,Wunderground v.1.15,2013-09-30 13:25:00,
2013-09-30 08:26:00,56.9,48.0,29.67,South,184,7.0,14.0,72,0.00,,,0.00,Wunderground v.1.15,2013-09-30 13:26:00,
2013-09-30 08:27:00,56.9,48.0,29.67,SSE,158,5.0,14.0,72,0.00,,,0.00,Wunderground v.1.15,2013-09-30 13:27:00,
2013-09-30 08:28:00,57.0,48.1,29.68,SSE,162,5.0,14.0,72,0.00,,,0.00,Wunderground v.1.15,2013-09-30 13:28:00,
2013-09-30 08:30:00,57.0,48.1,29.67,SSW,203,5.0,6.0,72,0.00,,,0.00,Wunderground v.1.15,2013-09-30 13:30:00,
2013-09-30 08:32:00,57.0,48.1,29.67,South,175,6.0,6.0,72,0.00,,,0.00,Wunderground v.1.15,2013-09-30 13:32:00,
2013-09-30 08:33:00,57.1,48.2,29.67,SSW,200,4.0,6.0,72,0.00,,,0.00,Wunderground v.1.15,2013-09-30 13:33:00,
2013-09-30 08:35:00,57.2,47.9,29.67,South,180,6.0,8.0,71,0.00,,,0.00,Wunderground v.1.15,2013-09-30 13:35:00,
2013-09-30 08:37:00,57.2,47.9,29.67,SE,146,7.0,8.0,71,0.00,,,0.00,Wunderground v.1.15,2013-09-30 13:37:00,
2013-09-30 08:38:00,57.2,48.3,29.67,South,185,5.0,13.0,72,0.00,,,0.00,Wunderground v.1.15,2013-09-30 13:38:00,
2013-09-30 08:41:00,57.4,48.1,29.67,South,171,5.0,10.0,71,0.00,,,0.00,Wunderground v.1.15,2013-09-30 13:41:00,
2013-09-30 08:42:00,57.5,48.2,29.67,SSE,164,8.0,14.0,71,0.00,,,0.00,Wunderground v.1.15,2013-09-30 13:42:00,
2013-09-30 08:43:00,57.5,48.2,29.67,South,190,7.0,14.0,71,0.00,,,0.00,Wunderground v.1.15,2013-09-30 13:43:00,
2013-09-30 08:46:00,57.7,48.4,29.67,South,177,5.0,14.0,71,0.00,,,0.00,Wunderground v.1.15,2013-09-30 13:46:00,
2013-09-30 08:48:00,57.8,48.1,29.67,South,170,7.0,14.0,70,0.00,,,0.00,Wunderground v.1.15,2013-09-30 13:48:00,
2013-09-30 08:49:00,57.8,48.1,29.67,South,170,7.0,14.0,70,0.00,,,0.00,Wunderground v.1.15,2013-09-30 13:49:00,
2013-09-30 08:52:00,57.9,48.2,29.67,South,187,3.0,8.0,70,0.00,,,0.00,Wunderground v.1.15,2013-09-30 13:52:00,
2013-09-30 08:53:00,58.0,48.3,29.67,SSE,166,7.0,8.0,70,0.00,,,0.00,Wunderground v.1.15,2013-09-30 13:53:00,
2013-09-30 08:54:00,57.9,48.2,29.67,South,185,7.0,8.0,70,0.00,,,0.00,Wunderground v.1.15,2013-09-30 13:54:00,
2013-09-30 08:55:00,58.0,48.3,29.67,South,169,7.0,9.0,70,0.00,,,0.00,Wunderground v.1.15,2013-09-30 13:55:00,
2013-09-30 08:57:00,58.1,48.4,29.67,SSE,162,10.0,11.0,70,0.00,,,0.00,Wunderground v.1.15,2013-09-30 13:57:00,
2013-09-30 08:58:00,58.1,48.4,29.67,SSE,162,8.0,11.0,70,0.00,,,0.00,Wunderground v.1.15,2013-09-30 13:58:00,
2013-09-30 08:59:00,58.2,48.5,29.67,South,174,6.0,11.0,70,0.00,,,0.00,Wunderground v.1.15,2013-09-30 13:59:00,
2013-09-30 09:00:00,58.3,48.6,29.67,South,178,8.0,9.0,70,0.00,,,0.00,Wunderground v.1.15,2013-09-30 14:00:00,
2013-09-30 09:02:00,58.6,48.5,29.67,SSE,167,4.0,10.0,69,0.00,,,0.00,Wunderground v.1.15,2013-09-30 14:02:00,
2013-09-30 09:03:00,58.6,48.5,29.67,South,176,5.0,10.0,69,0.00,,,0.00,Wunderground v.1.15,2013-09-30 14:03:00,
2013-09-30 09:04:00,58.8,48.6,29.67,South,175,6.0,10.0,69,0.00,,,0.00,Wunderground v.1.15,2013-09-30 14:04:00,
2013-09-30 09:06:00,59.0,48.8,29.66,South,183,8.0,10.0,69,0.00,,,0.00,Wunderground v.1.15,2013-09-30 14:06:00,
2013-09-30 09:07:00,59.3,48.7,29.66,South,169,6.0,10.0,68,0.00,,,0.00,Wunderground v.1.15,2013-09-30 14:07:00,
2013-09-30 09:08:00,59.3,48.7,29.67,South,182,4.0,10.0,68,0.00,,,0.00,Wunderground v.1.15,2013-09-30 14:08:00,
2013-09-30 09:09:00,59.4,48.8,29.67,SSE,155,7.0,10.0,68,0.00,,,0.00,Wunderground v.1.15,2013-09-30 14:09:00,
2013-09-30 09:12:00,59.7,48.7,29.66,South,190,8.0,11.0,67,0.00,,,0.00,Wunderground v.1.15,2013-09-30 14:12:00,
2013-09-30 09:13:00,59.8,48.8,29.66,SSE,152,7.0,11.0,67,0.00,,,0.00,Wunderground v.1.15,2013-09-30 14:13:00,
2013-09-30 09:14:00,59.8,48.8,29.66,South,170,9.0,11.0,67,0.00,,,0.00,Wunderground v.1.15,2013-09-30 14:14:00,
2013-09-30 09:17:00,60.0,49.0,29.66,South,180,6.0,11.0,67,0.00,,,0.00,Wunderground v.1.15,2013-09-30 14:17:00,
2013-09-30 09:19:00,60.2,49.2,29.66,SE,144,11.0,11.0,67,0.00,,,0.00,Wunderground v.1.15,2013-09-30 14:19:00,
2013-09-30 09:20:00,60.2,48.8,29.66,SSE,167,6.0,11.0,66,0.00,,,0.00,Wunderground v.1.15,2013-09-30 14:20:00,
2013-09-30 09:23:00,60.1,48.7,29.66,South,189,8.0,11.0,66,0.00,,,0.00,Wunderground v.1.15,2013-09-30 14:23:00,
2013-09-30 09:24:00,60.1,48.7,29.66,South,182,9.0,11.0,66,0.00,,,0.00,Wunderground v.1.15,2013-09-30 14:24:00,
2013-09-30 09:25:00,60.1,48.7,29.66,SSE,162,5.0,11.0,66,0.00,,,0.00,Wunderground v.1.15,2013-09-30 14:25:00,
2013-09-30 09:26:00,60.2,48.8,29.66,SSE,167,4.0,11.0,66,0.00,,,0.00,Wunderground v.1.15,2013-09-30 14:26:00,
2013-09-30 09:28:00,60.3,48.9,29.66,SSE,159,9.0,13.0,66,0.00,,,0.00,Wunderground v.1.15,2013-09-30 14:28:00,
2013-09-30 09:29:00,60.3,48.9,29.66,South,176,8.0,13.0,66,0.00,,,0.00,Wunderground v.1.15,2013-09-30 14:29:00,
2013-09-30 09:30:00,60.4,49.0,29.66,South,174,10.0,10.0,66,0.00,,,0.00,Wunderground v.1.15,2013-09-30 14:30:00,
2013-09-30 09:31:00,60.5,49.1,29.66,South,182,6.0,10.0,66,0.00,,,0.00,Wunderground v.1.15,2013-09-30 14:31:00,
2013-09-30 09:34:00,60.8,49.0,29.66,South,172,4.0,10.0,65,0.00,,,0.00,Wunderground v.1.15,2013-09-30 14:34:00,
2013-09-30 09:35:00,60.9,49.1,29.67,South,172,4.0,10.0,65,0.00,,,0.00,Wunderground v.1.15,2013-09-30 14:35:00,
2013-09-30 09:36:00,61.0,49.1,29.66,South,184,1.0,10.0,65,0.00,,,0.00,Wunderground v.1.15,2013-09-30 14:36:00,
2013-09-30 09:39:00,61.4,49.5,29.66,South,171,8.0,10.0,65,0.00,,,0.00,Wunderground v.1.15,2013-09-30 14:39:00,
2013-09-30 09:40:00,61.7,49.8,29.66,SSE,167,6.0,10.0,65,0.00,,,0.00,Wunderground v.1.15,2013-09-30 14:40:00,
2013-09-30 09:41:00,61.8,49.9,29.66,South,175,7.0,13.0,65,0.00,,,0.00,Wunderground v.1.15,2013-09-30 14:41:00,
2013-09-30 09:42:00,62.0,49.7,29.66,SSE,150,6.0,13.0,64,0.00,,,0.00,Wunderground v.1.15,2013-09-30 14:42:00,
2013-09-30 09:44:00,62.4,50.1,29.66,South,179,4.0,13.0,64,0.00,,,0.00,Wunderground v.1.15,2013-09-30 14:44:00,
2013-09-30 09:46:00,62.6,49.4,29.66,South,172,8.0,13.0,62,0.00,,,0.00,Wunderground v.1.15,2013-09-30 14:46:00,
2013-09-30 09:47:00,62.7,49.5,29.66,SE,132,17.0,17.0,62,0.00,,,0.00,Wunderground v.1.15,2013-09-30 14:47:00,
2013-09-30 09:48:00,62.7,49.5,29.66,South,178,7.0,17.0,62,0.00,,,0.00,Wunderground v.1.15,2013-09-30 14:48:00,
2013-09-30 09:49:00,62.7,49.1,29.66,South,180,7.0,17.0,61,0.00,,,0.00,Wunderground v.1.15,2013-09-30 14:49:00,
2013-09-30 09:52:00,63.0,49.3,29.66,SSE,159,8.0,13.0,61,0.00,,,0.00,Wunderground v.1.15,2013-09-30 14:52:00,
2013-09-30 09:53:00,63.1,49.4,29.66,South,189,4.0,13.0,61,0.00,,,0.00,Wunderground v.1.15,2013-09-30 14:53:00,
2013-09-30 09:54:00,63.2,49.1,29.66,South,169,4.0,13.0,60,0.00,,,0.00,Wunderground v.1.15,2013-09-30 14:54:00,
2013-09-30 09:57:00,63.7,49.5,29.66,South,180,7.0,13.0,60,0.00,,,0.00,Wunderground v.1.15,2013-09-30 14:57:00,
2013-09-30 09:58:00,63.9,49.3,29.66,South,180,8.0,15.0,59,0.00,,,0.00,Wunderground v.1.15,2013-09-30 14:58:00,
2013-09-30 09:59:00,63.9,49.3,29.66,South,178,7.0,15.0,59,0.00,,,0.00,Wunderground v.1.15,2013-09-30 14:59:00,
2013-09-30 10:00:00,64.0,48.9,29.66,South,176,9.0,9.0,58,0.00,,,0.00,Wunderground v.1.15,2013-09-30 15:00:00,
2013-09-30 10:02:00,64.4,49.3,29.65,South,191,6.0,9.0,58,0.00,,,0.00,Wunderground v.1.15,2013-09-30 15:02:00,
2013-09-30 10:04:00,64.7,49.6,29.66,South,169,9.0,9.0,58,0.00,,,0.00,Wunderground v.1.15,2013-09-30 15:04:00,
2013-09-30 10:05:00,64.8,49.7,29.66,SSE,159,8.0,12.0,58,0.00,,,0.00,Wunderground v.1.15,2013-09-30 15:05:00,
2013-09-30 10:07:00,65.2,49.1,29.66,South,170,8.0,14.0,56,0.00,,,0.00,Wunderground v.1.15,2013-09-30 15:07:00,
2013-09-30 10:09:00,65.2,49.1,29.65,South,185,4.0,14.0,56,0.00,,,0.00,Wunderground v.1.15,2013-09-30 15:09:00,
2013-09-30 10:10:00,65.3,49.2,29.65,South,182,7.0,8.0,56,0.00,,,0.00,Wunderground v.1.15,2013-09-30 15:10:00,
2013-09-30 10:13:00,65.4,49.3,29.66,SSE,148,6.0,13.0,56,0.00,,,0.00,Wunderground v.1.15,2013-09-30 15:13:00,
2013-09-30 10:14:00,65.4,49.3,29.65,South,176,8.0,13.0,56,0.00,,,0.00,Wunderground v.1.15,2013-09-30 15:14:00,
2013-09-30 10:15:00,65.5,49.4,29.65,SSE,165,8.0,13.0,56,0.00,,,0.00,Wunderground v.1.15,2013-09-30 15:15:00,
2013-09-30 10:18:00,65.8,49.2,29.65,South,171,8.0,15.0,55,0.00,,,0.00,Wunderground v.1.15,2013-09-30 15:18:00,
2013-09-30 10:19:00,65.8,49.2,29.65,South,182,10.0,10.0,55,0.00,,,0.00,Wunderground v.1.15,2013-09-30 15:19:00,
2013-09-30 10:20:00,65.8,49.2,29.65,South,180,8.0,10.0,55,0.00,,,0.00,Wunderground v.1.15,2013-09-30 15:20:00,
2013-09-30 10:24:00,66.3,49.6,29.65,South,170,7.0,11.0,55,0.00,,,0.00,Wunderground v.1.15,2013-09-30 15:24:00,
2013-09-30 10:25:00,66.3,49.6,29.65,South,180,6.0,11.0,55,0.00,,,0.00,Wunderground v.1.15,2013-09-30 15:25:00,
2013-09-30 10:26:00,66.6,49.4,29.65,SSE,165,6.0,11.0,54,0.00,,,0.00,Wunderground v.1.15,2013-09-30 15:26:00,
2013-09-30 10:30:00,66.9,49.7,29.65,SSE,163,8.0,8.0,54,0.00,,,0.00,Wunderground v.1.15,2013-09-30 15:30:00,
2013-09-30 10:31:00,67.0,49.3,29.65,South,180,3.0,8.0,53,0.00,,,0.00,Wunderground v.1.15,2013-09-30 15:31:00,
2013-09-30 10:35:00,67.5,49.8,29.65,South,188,7.0,15.0,53,0.00,,,0.00,Wunderground v.1.15,2013-09-30 15:35:00,
2013-09-30 10:36:00,67.7,49.4,29.65,South,177,6.0,15.0,52,0.00,,,0.00,Wunderground v.1.15,2013-09-30 15:36:00,
2013-09-30 10:37:00,67.8,50.0,29.65,South,175,8.0,15.0,53,0.00,,,0.00,Wunderground v.1.15,2013-09-30 15:37:00,
2013-09-30 10:40:00,67.9,49.6,29.65,South,180,5.0,7.0,52,0.00,,,0.00,Wunderground v.1.15,2013-09-30 15:40:00,
2013-09-30 10:41:00,68.0,49.7,29.66,South,181,7.0,10.0,52,0.00,,,0.00,Wunderground v.1.15,2013-09-30 15:41:00,
2013-09-30 10:42:00,68.0,49.7,29.66,South,174,9.0,12.0,52,0.00,,,0.00,Wunderground v.1.15,2013-09-30 15:42:00,
2013-09-30 10:45:00,68.0,49.7,29.65,South,183,6.0,12.0,52,0.00,,,0.00,Wunderground v.1.15,2013-09-30 15:45:00,
2013-09-30 10:46:00,68.0,49.2,29.65,South,191,7.0,13.0,51,0.00,,,0.00,Wunderground v.1.15,2013-09-30 15:46:00,
2013-09-30 10:47:00,68.0,49.2,29.65,South,180,9.0,13.0,51,0.00,,,0.00,Wunderground v.1.15,2013-09-30 15:47:00,
2013-09-30 10:48:00,67.9,49.1,29.65,SSE,167,6.0,13.0,51,0.00,,,0.00,Wunderground v.1.15,2013-09-30 15:48:00,
2013-09-30 10:50:00,67.9,49.1,29.65,SSE,164,6.0,13.0,51,0.00,,,0.00,Wunderground v.1.15,2013-09-30 15:50:00,
2013-09-30 10:52:00,68.0,49.7,29.65,South,180,4.0,13.0,52,0.00,,,0.00,Wunderground v.1.15,2013-09-30 15:52:00,
2013-09-30 10:53:00,68.1,49.8,29.65,SSE,162,11.0,13.0,52,0.00,,,0.00,Wunderground v.1.15,2013-09-30 15:53:00,
2013-09-30 10:56:00,68.3,50.0,29.65,South,181,7.0,13.0,52,0.00,,,0.00,Wunderground v.1.15,2013-09-30 15:56:00,
2013-09-30 10:57:00,68.4,49.6,29.65,South,171,12.0,13.0,51,0.00,,,0.00,Wunderground v.1.15,2013-09-30 15:57:00,
2013-09-30 10:58:00,68.5,49.7,29.65,SSE,160,8.0,13.0,51,0.00,,,0.00,Wunderground v.1.15,2013-09-30 15:58:00,
2013-09-30 10:59:00,68.5,49.7,29.65,South,180,8.0,13.0,51,0.00,,,0.00,Wunderground v.1.15,2013-09-30 15:59:00,
2013-09-30 11:01:00,68.6,49.7,29.64,SSW,196,6.0,12.0,51,0.00,,,0.00,Wunderground v.1.15,2013-09-30 16:01:00,
2013-09-30 11:03:00,68.7,49.3,29.65,SSE,160,7.0,12.0,50,0.00,,,0.00,Wunderground v.1.15,2013-09-30 16:03:00,
2013-09-30 11:04:00,68.9,49.5,29.65,South,187,9.0,15.0,50,0.00,,,0.00,Wunderground v.1.15,2013-09-30 16:04:00,
2013-09-30 11:06:00,68.9,49.5,29.65,South,177,7.0,15.0,50,0.00,,,0.00,Wunderground v.1.15,2013-09-30 16:06:00,
2013-09-30 11:08:00,69.1,49.7,29.65,South,175,6.0,15.0,50,0.00,,,0.00,Wunderground v.1.15,2013-09-30 16:08:00,
2013-09-30 11:09:00,69.2,49.8,29.65,SSE,161,6.0,15.0,50,0.00,,,0.00,Wunderground v.1.15,2013-09-30 16:09:00,
2013-09-30 11:11:00,69.6,50.1,29.64,SSE,167,6.0,10.0,50,0.00,,,0.00,Wunderground v.1.15,2013-09-30 16:11:00,
2013-09-30 11:13:00,69.9,49.9,29.64,South,171,7.0,10.0,49,0.00,,,0.00,Wunderground v.1.15,2013-09-30 16:13:00,
2013-09-30 11:14:00,70.0,50.0,29.64,South,173,10.0,11.0,49,0.00,,,0.00,Wunderground v.1.15,2013-09-30 16:14:00,
2013-09-30 11:17:00,70.1,49.5,29.64,South,169,6.0,11.0,48,0.00,,,0.00,Wunderground v.1.15,2013-09-30 16:17:00,
2013-09-30 11:18:00,70.1,49.5,29.64,SSW,209,6.0,11.0,48,0.00,,,0.00,Wunderground v.1.15,2013-09-30 16:18:00,
2013-09-30 11:19:00,70.2,50.1,29.64,SSW,192,9.0,11.0,49,0.00,,,0.00,Wunderground v.1.15,2013-09-30 16:19:00,
2013-09-30 11:20:00,70.2,50.1,29.64,South,173,6.0,10.0,49,0.00,,,0.00,Wunderground v.1.15,2013-09-30 16:20:00,
2013-09-30 11:22:00,70.3,49.7,29.64,South,179,8.0,10.0,48,0.00,,,0.00,Wunderground v.1.15,2013-09-30 16:22:00,
2013-09-30 11:24:00,70.5,49.9,29.64,South,177,6.0,10.0,48,0.00,,,0.00,Wunderground v.1.15,2013-09-30 16:24:00,
2013-09-30 11:25:00,70.5,49.9,29.64,South,172,8.0,10.0,48,0.00,,,0.00,Wunderground v.1.15,2013-09-30 16:25:00,
2013-09-30 11:27:00,70.7,49.5,29.64,South,175,5.0,12.0,47,0.00,,,0.00,Wunderground v.1.15,2013-09-30 16:27:00,
2013-09-30 11:29:00,70.9,50.2,29.64,South,169,9.0,12.0,48,0.00,,,0.00,Wunderground v.1.15,2013-09-30 16:29:00,
2013-09-30 11:30:00,71.0,49.7,29.64,South,171,6.0,13.0,47,0.00,,,0.00,Wunderground v.1.15,2013-09-30 16:30:00,
2013-09-30 11:31:00,71.1,50.4,29.64,South,190,7.0,13.0,48,0.00,,,0.00,Wunderground v.1.15,2013-09-30 16:31:00,
2013-09-30 11:32:00,71.3,50.0,29.64,South,181,9.0,13.0,47,0.00,,,0.00,Wunderground v.1.15,2013-09-30 16:32:00,
2013-09-30 11:35:00,71.5,50.2,29.64,South,175,10.0,13.0,47,0.00,,,0.00,Wunderground v.1.15,2013-09-30 16:35:00,
2013-09-30 11:36:00,71.5,50.2,29.64,SSE,164,12.0,13.0,47,0.00,,,0.00,Wunderground v.1.15,2013-09-30 16:36:00,
2013-09-30 11:37:00,71.4,50.1,29.63,South,180,8.0,13.0,47,0.00,,,0.00,Wunderground v.1.15,2013-09-30 16:37:00,
2013-09-30 11:38:00,71.3,50.0,29.63,SSE,165,9.0,13.0,47,0.00,,,0.00,Wunderground v.1.15,2013-09-30 16:38:00,
2013-09-30 11:40:00,71.2,49.9,29.63,SSE,168,8.0,12.0,47,0.00,,,0.00,Wunderground v.1.15,2013-09-30 16:40:00,
2013-09-30 11:41:00,71.3,50.0,29.63,SSE,167,16.0,20.0,47,0.00,,,0.00,Wunderground v.1.15,2013-09-30 16:41:00,
2013-09-30 11:43:00,71.5,50.2,29.64,South,186,7.0,20.0,47,0.00,,,0.00,Wunderground v.1.15,2013-09-30 16:43:00,
2013-09-30 11:44:00,71.5,50.2,29.64,SE,143,14.0,20.0,47,0.00,,,0.00,Wunderground v.1.15,2013-09-30 16:44:00,
2013-09-30 11:45:00,71.6,50.3,29.64,SSE,151,12.0,20.0,47,0.00,,,0.00,Wunderground v.1.15,2013-09-30 16:45:00,
2013-09-30 11:46:00,71.7,50.4,29.64,South,169,10.0,20.0,47,0.00,,,0.00,Wunderground v.1.15,2013-09-30 16:46:00,
2013-09-30 11:49:00,71.7,49.8,29.64,South,185,9.0,9.0,46,0.00,,,0.00,Wunderground v.1.15,2013-09-30 16:49:00,
2013-09-30 11:50:00,71.7,49.8,29.64,South,182,6.0,10.0,46,0.00,,,0.00,Wunderground v.1.15,2013-09-30 16:50:00,
2013-09-30 11:51:00,71.8,49.9,29.64,South,186,8.0,11.0,46,0.00,,,0.00,Wunderground v.1.15,2013-09-30 16:51:00,
2013-09-30 11:55:00,71.9,50.6,29.64,South,186,4.0,16.0,47,0.00,,,0.00,Wunderground v.1.15,2013-09-30 16:55:00,
2013-09-30 11:56:00,72.1,50.2,29.64,South,175,6.0,16.0,46,0.00,,,0.00,Wunderground v.1.15,2013-09-30 16:56:00,
2013-09-30 12:00:00,72.6,50.6,29.64,SSE,167,10.0,19.0,46,0.00,,,0.00,Wunderground v.1.15,2013-09-30 17:00:00,
2013-09-30 12:01:00,72.7,50.7,29.63,SSE,168,8.0,19.0,46,0.00,,,0.00,Wunderground v.1.15,2013-09-30 17:01:00,
2013-09-30 12:02:00,72.6,50.0,29.63,South,172,9.0,19.0,45,0.00,,,0.00,Wunderground v.1.15,2013-09-30 17:02:00,
2013-09-30 12:06:00,72.7,50.1,29.63,South,174,8.0,19.0,45,0.00,,,0.00,Wunderground v.1.15,2013-09-30 17:06:00,
2013-09-30 12:07:00,72.9,50.3,29.63,SSE,168,6.0,19.0,45,0.00,,,0.00,Wunderground v.1.15,2013-09-30 17:07:00,
2013-09-30 12:08:00,73.1,51.1,29.63,SSE,165,10.0,19.0,46,0.00,,,0.00,Wunderground v.1.15,2013-09-30 17:08:00,
2013-09-30 12:11:00,73.2,50.0,29.63,SSE,165,7.0,11.0,44,0.00,,,0.00,Wunderground v.1.15,2013-09-30 17:11:00,
2013-09-30 12:12:00,73.2,50.0,29.63,South,176,9.0,11.0,44,0.00,,,0.00,Wunderground v.1.15,2013-09-30 17:12:00,
2013-09-30 12:13:00,73.2,50.0,29.63,SSE,167,7.0,12.0,44,0.00,,,0.00,Wunderground v.1.15,2013-09-30 17:13:00,
2013-09-30 12:16:00,73.3,50.7,29.63,South,177,5.0,12.0,45,0.00,,,0.00,Wunderground v.1.15,2013-09-30 17:16:00,
2013-09-30 12:17:00,73.3,50.7,29.63,South,180,5.0,12.0,45,0.00,,,0.00,Wunderground v.1.15,2013-09-30 17:17:00,
2013-09-30 12:18:00,73.7,50.4,29.63,South,177,9.0,12.0,44,0.00,,,0.00,Wunderground v.1.15,2013-09-30 17:18:00,
2013-09-30 12:19:00,73.8,50.5,29.63,South,178,9.0,9.0,44,0.00,,,0.00,Wunderground v.1.15,2013-09-30 17:19:00,
2013-09-30 12:22:00,73.7,50.4,29.63,South,178,11.0,14.0,44,0.00,,,0.00,Wunderground v.1.15,2013-09-30 17:22:00,
2013-09-30 12:23:00,73.7,50.4,29.63,South,170,13.0,17.0,44,0.00,,,0.00,Wunderground v.1.15,2013-09-30 17:23:00,
2013-09-30 12:25:00,73.7,50.4,29.63,SSW,192,9.0,17.0,44,0.00,,,0.00,Wunderground v.1.15,2013-09-30 17:25:00,
2013-09-30 12:27:00,73.6,50.3,29.63,South,181,6.0,17.0,44,0.00,,,0.00,Wunderground v.1.15,2013-09-30 17:27:00,
2013-09-30 12:28:00,73.6,50.3,29.63,South,186,6.0,17.0,44,0.00,,,0.00,Wunderground v.1.15,2013-09-30 17:28:00,
2013-09-30 12:29:00,73.5,50.2,29.63,SSE,160,9.0,17.0,44,0.00,,,0.00,Wunderground v.1.15,2013-09-30 17:29:00,
2013-09-30 12:31:00,73.7,50.4,29.63,SSE,165,8.0,15.0,44,0.00,,,0.00,Wunderground v.1.15,2013-09-30 17:31:00,
2013-09-30 12:32:00,73.7,50.4,29.63,SE,146,13.0,15.0,44,0.00,,,0.00,Wunderground v.1.15,2013-09-30 17:32:00,
2013-09-30 12:33:00,73.8,50.5,29.63,South,180,9.0,17.0,44,0.00,,,0.00,Wunderground v.1.15,2013-09-30 17:33:00,
2013-09-30 12:34:00,73.9,51.2,29.63,SSE,167,8.0,17.0,45,0.00,,,0.00,Wunderground v.1.15,2013-09-30 17:34:00,
2013-09-30 12:36:00,74.1,50.8,29.63,South,178,11.0,17.0,44,0.00,,,0.00,Wunderground v.1.15,2013-09-30 17:36:00,
2013-09-30 12:37:00,74.2,50.9,29.63,South,172,10.0,17.0,44,0.00,,,0.00,Wunderground v.1.15,2013-09-30 17:37:00,
2013-09-30 12:38:00,74.2,50.3,29.63,South,172,12.0,17.0,43,0.00,,,0.00,Wunderground v.1.15,2013-09-30 17:38:00,
2013-09-30 12:39:00,74.3,51.0,29.63,South,184,10.0,10.0,44,0.00,,,0.00,Wunderground v.1.15,2013-09-30 17:39:00,
2013-09-30 12:40:00,74.3,51.0,29.63,SE,146,15.0,15.0,44,0.00,,,0.00,Wunderground v.1.15,2013-09-30 17:40:00,
2013-09-30 12:42:00,74.7,50.7,29.63,SSE,166,11.0,15.0,43,0.00,,,0.00,Wunderground v.1.15,2013-09-30 17:42:00,
2013-09-30 12:43:00,74.9,50.9,29.63,SSE,164,11.0,15.0,43,0.00,,,0.00,Wunderground v.1.15,2013-09-30 17:43:00,
2013-09-30 12:45:00,75.1,50.4,29.63,South,169,9.0,15.0,42,0.00,,,0.00,Wunderground v.1.15,2013-09-30 17:45:00,
2013-09-30 12:47:00,75.1,49.8,29.63,South,181,3.0,15.0,41,0.00,,,0.00,Wunderground v.1.15,2013-09-30 17:47:00,
2013-09-30 12:48:00,75.2,50.5,29.63,South,190,7.0,15.0,42,0.00,,,0.00,Wunderground v.1.15,2013-09-30 17:48:00,
2013-09-30 12:50:00,75.6,50.9,29.63,South,170,6.0,9.0,42,0.00,,,0.00,Wunderground v.1.15,2013-09-30 17:50:00,
2013-09-30 12:52:00,75.7,51.0,29.63,South,178,6.0,9.0,42,0.00,,,0.00,Wunderground v.1.15,2013-09-30 17:52:00,
2013-09-30 12:53:00,75.7,50.3,29.63,South,184,6.0,9.0,41,0.00,,,0.00,Wunderground v.1.15,2013-09-30 17:53:00,
2013-09-30 12:56:00,75.7,51.0,29.63,South,185,6.0,11.0,42,0.00,,,0.00,Wunderground v.1.15,2013-09-30 17:56:00,
2013-09-30 12:57:00,75.8,50.4,29.63,SSE,167,5.0,11.0,41,0.00,,,0.00,Wunderground v.1.15,2013-09-30 17:57:00,
2013-09-30 12:58:00,75.8,50.4,29.63,South,180,5.0,11.0,41,0.00,,,0.00,Wunderground v.1.15,2013-09-30 17:58:00,
2013-09-30 13:01:00,76.0,50.6,29.63,South,180,4.0,15.0,41,0.00,,,0.00,Wunderground v.1.15,2013-09-30 18:01:00,
2013-09-30 13:02:00,76.0,50.6,29.63,South,184,7.0,15.0,41,0.00,,,0.00,Wunderground v.1.15,2013-09-30 18:02:00,
2013-09-30 13:03:00,76.0,50.6,29.63,South,184,6.0,15.0,41,0.00,,,0.00,Wunderground v.1.15,2013-09-30 18:03:00,
2013-09-30 13:04:00,75.9,50.5,29.63,SSW,194,8.0,15.0,41,0.00,,,0.00,Wunderground v.1.15,2013-09-30 18:04:00,
2013-09-30 13:06:00,75.9,50.5,29.63,South,173,6.0,15.0,41,0.00,,,0.00,Wunderground v.1.15,2013-09-30 18:06:00,
2013-09-30 13:07:00,76.0,50.6,29.63,South,171,6.0,15.0,41,0.00,,,0.00,Wunderground v.1.15,2013-09-30 18:07:00,
2013-09-30 13:08:00,76.0,50.6,29.63,SSE,156,11.0,15.0,41,0.00,,,0.00,Wunderground v.1.15,2013-09-30 18:08:00,
2013-09-30 13:10:00,76.0,50.6,29.63,South,184,6.0,10.0,41,0.00,,,0.00,Wunderground v.1.15,2013-09-30 18:10:00,
2013-09-30 13:11:00,75.9,50.5,29.63,South,189,5.0,10.0,41,0.00,,,0.00,Wunderground v.1.15,2013-09-30 18:11:00,
2013-09-30 13:12:00,76.0,50.6,29.63,South,186,5.0,10.0,41,0.00,,,0.00,Wunderground v.1.15,2013-09-30 18:12:00,
2013-09-30 13:13:00,76.1,50.7,29.63,South,179,8.0,10.0,41,0.00,,,0.00,Wunderground v.1.15,2013-09-30 18:13:00,
2013-09-30 13:16:00,76.4,50.3,29.62,SSE,167,9.0,10.0,40,0.00,,,0.00,Wunderground v.1.15,2013-09-30 18:16:00,
2013-09-30 13:17:00,76.5,50.4,29.63,South,169,7.0,12.0,40,0.00,,,0.00,Wunderground v.1.15,2013-09-30 18:17:00,
2013-09-30 13:18:00,76.5,50.4,29.63,South,184,6.0,13.0,40,0.00,,,0.00,Wunderground v.1.15,2013-09-30 18:18:00,
2013-09-30 13:21:00,76.4,51.0,29.62,South,173,7.0,12.0,41,0.00,,,0.00,Wunderground v.1.15,2013-09-30 18:21:00,
2013-09-30 13:23:00,76.3,50.2,29.62,South,191,6.0,16.0,40,0.00,,,0.00,Wunderground v.1.15,2013-09-30 18:23:00,
2013-09-30 13:24:00,76.3,50.2,29.62,South,187,8.0,21.0,40,0.00,,,0.00,Wunderground v.1.15,2013-09-30 18:24:00,
2013-09-30 13:26:00,76.4,50.3,29.62,South,171,9.0,21.0,40,0.00,,,0.00,Wunderground v.1.15,2013-09-30 18:26:00,
2013-09-30 13:28:00,76.6,51.1,29.62,SSE,155,11.0,21.0,41,0.00,,,0.00,Wunderground v.1.15,2013-09-30 18:28:00,
2013-09-30 13:29:00,76.7,51.2,29.62,South,170,4.0,21.0,41,0.00,,,0.00,Wunderground v.1.15,2013-09-30 18:29:00,
2013-09-30 13:31:00,77.3,51.1,29.62,South,169,5.0,10.0,40,0.00,,,0.00,Wunderground v.1.15,2013-09-30 18:31:00,
2013-09-30 13:33:00,77.3,50.4,29.62,South,171,9.0,11.0,39,0.00,,,0.00,Wunderground v.1.15,2013-09-30 18:33:00,
2013-09-30 13:34:00,77.3,50.4,29.62,SW,224,9.0,11.0,39,0.00,,,0.00,Wunderground v.1.15,2013-09-30 18:34:00,
2013-09-30 13:37:00,77.2,51.0,29.61,South,171,9.0,12.0,40,0.00,,,0.00,Wunderground v.1.15,2013-09-30 18:37:00,
2013-09-30 13:39:00,77.1,50.9,29.61,SSW,196,7.0,12.0,40,0.00,,,0.00,Wunderground v.1.15,2013-09-30 18:39:00,
2013-09-30 13:42:00,77.6,51.4,29.61,SSW,194,4.0,10.0,40,0.00,,,0.00,Wunderground v.1.15,2013-09-30 18:42:00,
2013-09-30 13:44:00,77.9,50.9,29.61,South,175,7.0,10.0,39,0.00,,,0.00,Wunderground v.1.15,2013-09-30 18:44:00,
2013-09-30 13:47:00,77.9,50.9,29.61,South,180,7.0,14.0,39,0.00,,,0.00,Wunderground v.1.15,2013-09-30 18:47:00,
2013-09-30 13:49:00,78.2,51.2,29.61,South,186,7.0,14.0,39,0.00,,,0.00,Wunderground v.1.15,2013-09-30 18:49:00,
2013-09-30 13:50:00,78.2,51.2,29.61,SSW,194,5.0,7.0,39,0.00,,,0.00,Wunderground v.1.15,2013-09-30 18:50:00,
2013-09-30 13:53:00,78.7,51.0,29.61,South,175,7.0,10.0,38,0.00,,,0.00,Wunderground v.1.15,2013-09-30 18:53:00,
2013-09-30 13:54:00,78.7,51.0,29.61,South,182,6.0,10.0,38,0.00,,,0.00,Wunderground v.1.15,2013-09-30 18:54:00,
2013-09-30 13:55:00,78.7,51.7,29.61,South,180,9.0,10.0,39,0.00,,,0.00,Wunderground v.1.15,2013-09-30 18:55:00,
2013-09-30 13:58:00,78.7,51.0,29.61,SSE,164,13.0,13.0,38,0.00,,,0.00,Wunderground v.1.15,2013-09-30 18:58:00,
2013-09-30 13:59:00,78.7,51.0,29.61,SSE,166,8.0,14.0,38,0.00,,,0.00,Wunderground v.1.15,2013-09-30 18:59:00,
2013-09-30 14:00:00,78.7,50.2,29.61,South,173,11.0,11.0,37,0.00,,,0.00,Wunderground v.1.15,2013-09-30 19:00:00,
2013-09-30 14:04:00,78.6,50.9,29.61,South,181,5.0,16.0,38,0.00,,,0.00,Wunderground v.1.15,2013-09-30 19:04:00,
2013-09-30 14:05:00,78.8,51.0,29.61,South,174,8.0,16.0,38,0.00,,,0.00,Wunderground v.1.15,2013-09-30 19:05:00,
2013-09-30 14:06:00,78.8,50.3,29.61,South,188,7.0,16.0,37,0.00,,,0.00,Wunderground v.1.15,2013-09-30 19:06:00,
2013-09-30 14:09:00,78.8,50.3,29.61,South,185,8.0,16.0,37,0.00,,,0.00,Wunderground v.1.15,2013-09-30 19:09:00,
2013-09-30 14:10:00,78.6,50.1,29.61,SSE,167,6.0,9.0,37,0.00,,,0.00,Wunderground v.1.15,2013-09-30 19:10:00,
2013-09-30 14:11:00,78.6,50.9,29.61,South,184,9.0,9.0,38,0.00,,,0.00,Wunderground v.1.15,2013-09-30 19:11:00,
2013-09-30 14:13:00,78.6,50.9,29.60,South,178,5.0,9.0,38,0.00,,,0.00,Wunderground v.1.15,2013-09-30 19:13:00,
2013-09-30 14:14:00,78.7,50.2,29.60,SSE,166,8.0,16.0,37,0.00,,,0.00,Wunderground v.1.15,2013-09-30 19:14:00,
2013-09-30 14:15:00,78.7,51.0,29.61,South,183,8.0,16.0,38,0.00,,,0.00,Wunderground v.1.15,2013-09-30 19:15:00,
2013-09-30 14:16:00,78.7,51.0,29.60,South,174,7.0,16.0,38,0.00,,,0.00,Wunderground v.1.15,2013-09-30 19:16:00,
2013-09-30 14:17:00,78.7,51.0,29.60,South,169,7.0,16.0,38,0.00,,,0.00,Wunderground v.1.15,2013-09-30 19:17:00,
2013-09-30 14:18:00,78.7,51.0,29.60,South,180,7.0,16.0,38,0.00,,,0.00,Wunderground v.1.15,2013-09-30 19:18:00,
2013-09-30 14:19:00,78.7,51.0,29.60,South,169,6.0,16.0,38,0.00,,,0.00,Wunderground v.1.15,2013-09-30 19:19:00,
2013-09-30 14:21:00,79.0,51.9,29.60,SSW,195,6.0,8.0,39,0.00,,,0.00,Wunderground v.1.15,2013-09-30 19:21:00,
2013-09-30 14:22:00,79.4,50.9,29.60,South,190,6.0,8.0,37,0.00,,,0.00,Wunderground v.1.15,2013-09-30 19:22:00,
2013-09-30 14:24:00,79.6,51.0,29.60,SSE,163,10.0,10.0,37,0.00,,,0.00,Wunderground v.1.15,2013-09-30 19:24:00,
2013-09-30 14:26:00,79.4,50.9,29.60,South,174,6.0,13.0,37,0.00,,,0.00,Wunderground v.1.15,2013-09-30 19:26:00,
2013-09-30 14:27:00,79.4,50.9,29.60,South,180,4.0,13.0,37,0.00,,,0.00,Wunderground v.1.15,2013-09-30 19:27:00,
2013-09-30 14:29:00,79.3,50.8,29.60,South,190,11.0,14.0,37,0.00,,,0.00,Wunderground v.1.15,2013-09-30 19:29:00,
2013-09-30 14:30:00,79.1,50.6,29.60,South,172,10.0,13.0,37,0.00,,,0.00,Wunderground v.1.15,2013-09-30 19:30:00,
2013-09-30 14:31:00,78.9,50.4,29.60,SSE,156,8.0,13.0,37,0.00,,,0.00,Wunderground v.1.15,2013-09-30 19:31:00,
2013-09-30 14:32:00,78.9,50.4,29.60,SSE,161,11.0,14.0,37,0.00,,,0.00,Wunderground v.1.15,2013-09-30 19:32:00,
2013-09-30 14:34:00,78.9,51.1,29.59,South,176,8.0,14.0,38,0.00,,,0.00,Wunderground v.1.15,2013-09-30 19:34:00,
2013-09-30 14:35:00,78.8,51.0,29.59,SSE,150,8.0,14.0,38,0.00,,,0.00,Wunderground v.1.15,2013-09-30 19:35:00,
2013-09-30 14:37:00,78.9,50.4,29.59,South,186,7.0,15.0,37,0.00,,,0.00,Wunderground v.1.15,2013-09-30 19:37:00,
2013-09-30 14:38:00,78.8,50.3,29.59,SE,145,9.0,17.0,37,0.00,,,0.00,Wunderground v.1.15,2013-09-30 19:38:00,
2013-09-30 14:39:00,78.8,51.0,29.59,South,171,12.0,17.0,38,0.00,,,0.00,Wunderground v.1.15,2013-09-30 19:39:00,
2013-09-30 14:40:00,78.9,50.4,29.59,South,178,7.0,12.0,37,0.00,,,0.00,Wunderground v.1.15,2013-09-30 19:40:00,
2013-09-30 14:42:00,79.1,50.6,29.59,South,190,8.0,14.0,37,0.00,,,0.00,Wunderground v.1.15,2013-09-30 19:42:00,
2013-09-30 14:43:00,79.2,50.7,29.59,South,184,6.0,14.0,37,0.00,,,0.00,Wunderground v.1.15,2013-09-30 19:43:00,
2013-09-30 14:44:00,79.3,50.8,29.59,SW,214,6.0,14.0,37,0.00,,,0.00,Wunderground v.1.15,2013-09-30 19:44:00,
2013-09-30 14:46:00,79.5,50.9,29.59,SSE,154,9.0,14.0,37,0.00,,,0.00,Wunderground v.1.15,2013-09-30 19:46:00,
2013-09-30 14:47:00,79.7,51.1,29.59,SSE,164,8.0,14.0,37,0.00,,,0.00,Wunderground v.1.15,2013-09-30 19:47:00,
2013-09-30 14:48:00,79.8,50.5,29.59,SSE,159,10.0,14.0,36,0.00,,,0.00,Wunderground v.1.15,2013-09-30 19:48:00,
2013-09-30 14:49:00,79.9,50.6,29.59,South,175,7.0,8.0,36,0.00,,,0.00,Wunderground v.1.15,2013-09-30 19:49:00,
2013-09-30 14:51:00,79.9,49.8,29.59,South,190,6.0,11.0,35,0.00,,,0.00,Wunderground v.1.15,2013-09-30 19:51:00,
2013-09-30 14:52:00,79.8,50.5,29.59,SSE,167,10.0,18.0,36,0.00,,,0.00,Wunderground v.1.15,2013-09-30 19:52:00,
2013-09-30 14:53:00,79.8,50.5,29.59,SSE,161,14.0,18.0,36,0.00,,,0.00,Wunderground v.1.15,2013-09-30 19:53:00,
2013-09-30 14:54:00,79.7,50.4,29.59,South,173,11.0,18.0,36,0.00,,,0.00,Wunderground v.1.15,2013-09-30 19:54:00,
2013-09-30 14:56:00,79.7,50.4,29.59,SSW,193,11.0,18.0,36,0.00,,,0.00,Wunderground v.1.15,2013-09-30 19:56:00,
2013-09-30 14:57:00,79.6,50.3,29.59,South,176,10.0,18.0,36,0.00,,,0.00,Wunderground v.1.15,2013-09-30 19:57:00,
2013-09-30 14:58:00,79.6,49.5,29.59,South,172,7.0,18.0,35,0.00,,,0.00,Wunderground v.1.15,2013-09-30 19:58:00,
2013-09-30 15:00:00,79.7,50.4,29.59,SSE,167,10.0,16.0,36,0.00,,,0.00,Wunderground v.1.15,2013-09-30 20:00:00,
2013-09-30 15:01:00,79.8,50.5,29.59,South,170,6.0,16.0,36,0.00,,,0.00,Wunderground v.1.15,2013-09-30 20:01:00,
2013-09-30 15:02:00,80.0,50.6,29.59,South,173,6.0,16.0,36,0.00,,,0.00,Wunderground v.1.15,2013-09-30 20:02:00,
2013-09-30 15:03:00,80.0,50.6,29.59,South,188,6.0,16.0,36,0.00,,,0.00,Wunderground v.1.15,2013-09-30 20:03:00,
2013-09-30 15:04:00,80.2,50.8,29.59,South,184,6.0,16.0,36,0.00,,,0.00,Wunderground v.1.15,2013-09-30 20:04:00,
2013-09-30 15:07:00,80.3,50.1,29.58,South,178,8.0,16.0,35,0.00,,,0.00,Wunderground v.1.15,2013-09-30 20:07:00,
2013-09-30 15:08:00,80.3,50.1,29.58,South,182,10.0,16.0,35,0.00,,,0.00,Wunderground v.1.15,2013-09-30 20:08:00,
2013-09-30 15:09:00,80.4,50.2,29.58,South,178,11.0,11.0,35,0.00,,,0.00,Wunderground v.1.15,2013-09-30 20:09:00,
2013-09-30 15:12:00,80.3,50.1,29.58,South,172,12.0,15.0,35,0.00,,,0.00,Wunderground v.1.15,2013-09-30 20:12:00,
2013-09-30 15:13:00,80.3,50.1,29.58,SSE,167,12.0,15.0,35,0.00,,,0.00,Wunderground v.1.15,2013-09-30 20:13:00,
2013-09-30 15:15:00,80.2,50.1,29.58,SSE,155,8.0,15.0,35,0.00,,,0.00,Wunderground v.1.15,2013-09-30 20:15:00,
2013-09-30 15:18:00,80.2,50.1,29.58,South,171,11.0,15.0,35,0.00,,,0.00,Wunderground v.1.15,2013-09-30 20:18:00,
2013-09-30 15:19:00,80.3,50.1,29.58,South,181,8.0,15.0,35,0.00,,,0.00,Wunderground v.1.15,2013-09-30 20:19:00,
2013-09-30 15:20:00,80.3,50.1,29.58,SSE,166,9.0,10.0,35,0.00,,,0.00,Wunderground v.1.15,2013-09-30 20:20:00,
2013-09-30 15:22:00,80.9,49.9,29.58,South,183,8.0,12.0,34,0.00,,,0.00,Wunderground v.1.15,2013-09-30 20:22:00,
2013-09-30 15:23:00,80.9,49.1,29.58,South,191,10.0,12.0,33,0.00,,,0.00,Wunderground v.1.15,2013-09-30 20:23:00,
2013-09-30 15:25:00,81.2,49.4,29.58,SSE,167,8.0,12.0,33,0.00,,,0.00,Wunderground v.1.15,2013-09-30 20:25:00,
2013-09-30 15:28:00,81.5,50.4,29.58,SSE,163,11.0,14.0,34,0.00,,,0.00,Wunderground v.1.15,2013-09-30 20:28:00,
2013-09-30 15:31:00,81.3,50.2,29.58,South,172,9.0,15.0,34,0.00,,,0.00,Wunderground v.1.15,2013-09-30 20:31:00,
2013-09-30 15:33:00,81.2,50.2,29.58,South,169,8.0,15.0,34,0.00,,,0.00,Wunderground v.1.15,2013-09-30 20:33:00,
2013-09-30 15:36:00,81.5,50.4,29.58,South,180,6.0,15.0,34,0.00,,,0.00,Wunderground v.1.15,2013-09-30 20:36:00,
2013-09-30 15:38:00,81.5,50.4,29.58,South,173,6.0,15.0,34,0.00,,,0.00,Wunderground v.1.15,2013-09-30 20:38:00,
2013-09-30 15:39:00,81.6,50.5,29.58,South,170,9.0,15.0,34,0.00,,,0.00,Wunderground v.1.15,2013-09-30 20:39:00,
2013-09-30 15:41:00,81.6,50.5,29.57,South,171,9.0,12.0,34,0.00,,,0.00,Wunderground v.1.15,2013-09-30 20:41:00,
2013-09-30 15:43:00,81.4,49.5,29.57,South,175,8.0,12.0,33,0.00,,,0.00,Wunderground v.1.15,2013-09-30 20:43:00,
2013-09-30 15:44:00,81.4,49.5,29.57,SSE,165,8.0,12.0,33,0.00,,,0.00,Wunderground v.1.15,2013-09-30 20:44:00,
2013-09-30 15:46:00,81.6,49.7,29.57,South,184,7.0,12.0,33,0.00,,,0.00,Wunderground v.1.15,2013-09-30 20:46:00,
2013-09-30 15:48:00,81.7,49.8,29.57,SSE,167,11.0,12.0,33,0.00,,,0.00,Wunderground v.1.15,2013-09-30 20:48:00,
2013-09-30 15:49:00,81.7,50.6,29.57,South,180,6.0,8.0,34,0.00,,,0.00,Wunderground v.1.15,2013-09-30 20:49:00,
2013-09-30 15:50:00,81.6,50.5,29.57,SSW,196,9.0,9.0,34,0.00,,,0.00,Wunderground v.1.15,2013-09-30 20:50:00,
2013-09-30 15:51:00,81.6,48.9,29.57,South,169,7.0,11.0,32,0.00,,,0.00,Wunderground v.1.15,2013-09-30 20:51:00,
2013-09-30 15:54:00,81.6,49.7,29.57,South,181,7.0,11.0,33,0.00,,,0.00,Wunderground v.1.15,2013-09-30 20:54:00,
2013-09-30 15:55:00,81.7,49.8,29.57,South,172,7.0,11.0,33,0.00,,,0.00,Wunderground v.1.15,2013-09-30 20:55:00,
2013-09-30 15:57:00,81.7,49.8,29.57,SSE,165,10.0,12.0,33,0.00,,,0.00,Wunderground v.1.15,2013-09-30 20:57:00,
2013-09-30 15:59:00,81.6,49.7,29.57,South,183,10.0,13.0,33,0.00,,,0.00,Wunderground v.1.15,2013-09-30 20:59:00,
2013-09-30 16:00:00,81.4,49.5,29.57,SSE,163,6.0,12.0,33,0.00,,,0.00,Wunderground v.1.15,2013-09-30 21:00:00,
2013-09-30 16:02:00,81.2,50.2,29.57,SSE,163,13.0,14.0,34,0.00,,,0.00,Wunderground v.1.15,2013-09-30 21:02:00,
2013-09-30 16:04:00,81.1,50.1,29.57,South,179,10.0,14.0,34,0.00,,,0.00,Wunderground v.1.15,2013-09-30 21:04:00,
2013-09-30 16:05:00,81.1,50.1,29.57,South,178,11.0,14.0,34,0.00,,,0.00,Wunderground v.1.15,2013-09-30 21:05:00,
2013-09-30 16:06:00,80.9,49.9,29.57,South,173,10.0,16.0,34,0.00,,,0.00,Wunderground v.1.15,2013-09-30 21:06:00,
2013-09-30 16:07:00,80.9,49.9,29.57,South,169,11.0,16.0,34,0.00,,,0.00,Wunderground v.1.15,2013-09-30 21:07:00,
2013-09-30 16:09:00,80.8,49.8,29.57,South,176,9.0,16.0,34,0.00,,,0.00,Wunderground v.1.15,2013-09-30 21:09:00,
2013-09-30 16:10:00,80.7,49.7,29.57,South,179,9.0,10.0,34,0.00,,,0.00,Wunderground v.1.15,2013-09-30 21:10:00,
2013-09-30 16:12:00,80.7,49.7,29.57,South,186,6.0,18.0,34,0.00,,,0.00,Wunderground v.1.15,2013-09-30 21:12:00,
2013-09-30 16:13:00,80.7,50.5,29.57,South,174,6.0,18.0,35,0.00,,,0.00,Wunderground v.1.15,2013-09-30 21:13:00,
2013-09-30 16:14:00,80.8,50.6,29.57,South,182,9.0,18.0,35,0.00,,,0.00,Wunderground v.1.15,2013-09-30 21:14:00,
2013-09-30 16:17:00,81.0,50.0,29.57,South,169,6.0,18.0,34,0.00,,,0.00,Wunderground v.1.15,2013-09-30 21:17:00,
2013-09-30 16:18:00,80.9,49.9,29.57,SSE,167,6.0,18.0,34,0.00,,,0.00,Wunderground v.1.15,2013-09-30 21:18:00,
2013-09-30 16:19:00,80.9,49.9,29.57,South,170,9.0,18.0,34,0.00,,,0.00,Wunderground v.1.15,2013-09-30 21:19:00,
2013-09-30 16:22:00,80.8,49.8,29.57,South,175,9.0,12.0,34,0.00,,,0.00,Wunderground v.1.15,2013-09-30 21:22:00,
2013-09-30 16:23:00,80.7,49.7,29.57,South,171,9.0,13.0,34,0.00,,,0.00,Wunderground v.1.15,2013-09-30 21:23:00,
2013-09-30 16:24:00,80.7,49.7,29.57,South,172,11.0,13.0,34,0.00,,,0.00,Wunderground v.1.15,2013-09-30 21:24:00,
2013-09-30 16:27:00,80.8,49.8,29.57,South,174,7.0,13.0,34,0.00,,,0.00,Wunderground v.1.15,2013-09-30 21:27:00,
2013-09-30 16:28:00,80.8,49.0,29.57,SSE,163,9.0,13.0,33,0.00,,,0.00,Wunderground v.1.15,2013-09-30 21:28:00,
2013-09-30 16:29:00,80.9,49.9,29.57,SSW,203,7.0,13.0,34,0.00,,,0.00,Wunderground v.1.15,2013-09-30 21:29:00,
2013-09-30 16:32:00,80.8,49.0,29.57,SSE,166,7.0,10.0,33,0.00,,,0.00,Wunderground v.1.15,2013-09-30 21:32:00,
2013-09-30 16:33:00,80.7,48.9,29.57,South,184,8.0,10.0,33,0.00,,,0.00,Wunderground v.1.15,2013-09-30 21:33:00,
2013-09-30 16:34:00,80.7,49.7,29.57,South,171,7.0,10.0,34,0.00,,,0.00,Wunderground v.1.15,2013-09-30 21:34:00,
2013-09-30 16:35:00,80.8,49.8,29.57,South,169,9.0,10.0,34,0.00,,,0.00,Wunderground v.1.15,2013-09-30 21:35:00,
2013-09-30 16:37:00,80.7,49.7,29.57,South,173,6.0,10.0,34,0.00,,,0.00,Wunderground v.1.15,2013-09-30 21:37:00,
2013-09-30 16:38:00,80.7,49.7,29.57,South,173,6.0,10.0,34,0.00,,,0.00,Wunderground v.1.15,2013-09-30 21:38:00,
2013-09-30 16:40:00,80.7,49.7,29.57,South,190,7.0,7.0,34,0.00,,,0.00,Wunderground v.1.15,2013-09-30 21:40:00,
2013-09-30 16:42:00,80.7,49.7,29.57,SSW,192,5.0,8.0,34,0.00,,,0.00,Wunderground v.1.15,2013-09-30 21:42:00,
2013-09-30 16:44:00,80.7,49.7,29.57,South,184,5.0,8.0,34,0.00,,,0.00,Wunderground v.1.15,2013-09-30 21:44:00,
2013-09-30 16:45:00,80.7,50.5,29.57,SSW,195,9.0,9.0,35,0.00,,,0.00,Wunderground v.1.15,2013-09-30 21:45:00,
2013-09-30 16:46:00,80.7,49.7,29.57,South,175,6.0,9.0,34,0.00,,,0.00,Wunderground v.1.15,2013-09-30 21:46:00,
2013-09-30 16:47:00,80.7,49.7,29.57,South,171,8.0,9.0,34,0.00,,,0.00,Wunderground v.1.15,2013-09-30 21:47:00,
2013-09-30 16:49:00,80.6,49.6,29.57,SSE,160,7.0,12.0,34,0.00,,,0.00,Wunderground v.1.15,2013-09-30 21:49:00,
2013-09-30 16:50:00,80.5,49.5,29.57,SSW,199,9.0,9.0,34,0.00,,,0.00,Wunderground v.1.15,2013-09-30 21:50:00,
2013-09-30 16:51:00,80.5,49.5,29.57,South,181,6.0,9.0,34,0.00,,,0.00,Wunderground v.1.15,2013-09-30 21:51:00,
2013-09-30 16:52:00,80.5,49.5,29.57,South,185,5.0,9.0,34,0.00,,,0.00,Wunderground v.1.15,2013-09-30 21:52:00,
2013-09-30 16:55:00,80.4,50.2,29.57,South,186,4.0,9.0,35,0.00,,,0.00,Wunderground v.1.15,2013-09-30 21:55:00,
2013-09-30 16:56:00,80.4,50.2,29.57,South,180,8.0,9.0,35,0.00,,,0.00,Wunderground v.1.15,2013-09-30 21:56:00,
2013-09-30 16:57:00,80.4,50.2,29.57,South,178,4.0,9.0,35,0.00,,,0.00,Wunderground v.1.15,2013-09-30 21:57:00,
2013-09-30 17:00:00,80.3,50.1,29.57,South,176,6.0,9.0,35,0.00,,,0.00,Wunderground v.1.15,2013-09-30 22:00:00,
2013-09-30 17:01:00,80.4,50.2,29.57,South,173,5.0,9.0,35,0.00,,,0.00,Wunderground v.1.15,2013-09-30 22:01:00,
2013-09-30 17:02:00,80.3,50.1,29.57,SSE,163,8.0,9.0,35,0.00,,,0.00,Wunderground v.1.15,2013-09-30 22:02:00,
2013-09-30 17:05:00,80.3,50.1,29.57,South,178,7.0,16.0,35,0.00,,,0.00,Wunderground v.1.15,2013-09-30 22:05:00,
2013-09-30 17:06:00,80.3,50.1,29.57,South,175,6.0,16.0,35,0.00,,,0.00,Wunderground v.1.15,2013-09-30 22:06:00,
2013-09-30 17:07:00,80.2,50.1,29.57,SSW,195,5.0,16.0,35,0.00,,,0.00,Wunderground v.1.15,2013-09-30 22:07:00,
2013-09-30 17:08:00,80.2,50.1,29.57,South,184,9.0,16.0,35,0.00,,,0.00,Wunderground v.1.15,2013-09-30 22:08:00,
2013-09-30 17:11:00,80.0,49.9,29.57,South,186,4.0,11.0,35,0.00,,,0.00,Wunderground v.1.15,2013-09-30 22:11:00,
2013-09-30 17:12:00,79.9,50.6,29.57,South,177,5.0,11.0,36,0.00,,,0.00,Wunderground v.1.15,2013-09-30 22:12:00,
2013-09-30 17:13:00,79.9,50.6,29.57,South,184,6.0,11.0,36,0.00,,,0.00,Wunderground v.1.15,2013-09-30 22:13:00,
2013-09-30 17:14:00,79.9,50.6,29.57,SW,217,7.0,11.0,36,0.00,,,0.00,Wunderground v.1.15,2013-09-30 22:14:00,
2013-09-30 17:16:00,79.9,50.6,29.57,South,189,6.0,11.0,36,0.00,,,0.00,Wunderground v.1.15,2013-09-30 22:16:00,
2013-09-30 17:17:00,79.9,50.6,29.57,South,178,5.0,11.0,36,0.00,,,0.00,Wunderground v.1.15,2013-09-30 22:17:00,
2013-09-30 17:18:00,79.9,50.6,29.57,South,188,4.0,11.0,36,0.00,,,0.00,Wunderground v.1.15,2013-09-30 22:18:00,
2013-09-30 17:21:00,79.8,50.5,29.57,South,175,7.0,8.0,36,0.00,,,0.00,Wunderground v.1.15,2013-09-30 22:21:00,
2013-09-30 17:22:00,79.8,50.5,29.57,SSE,166,7.0,9.0,36,0.00,,,0.00,Wunderground v.1.15,2013-09-30 22:22:00,
2013-09-30 17:23:00,79.8,50.5,29.57,SSE,163,5.0,9.0,36,0.00,,,0.00,Wunderground v.1.15,2013-09-30 22:23:00,
2013-09-30 17:26:00,79.7,50.4,29.57,South,178,6.0,9.0,36,0.00,,,0.00,Wunderground v.1.15,2013-09-30 22:26:00,
2013-09-30 17:27:00,79.7,50.4,29.57,SSE,165,7.0,9.0,36,0.00,,,0.00,Wunderground v.1.15,2013-09-30 22:27:00,
2013-09-30 17:28:00,79.7,50.4,29.57,SSW,192,5.0,9.0,36,0.00,,,0.00,Wunderground v.1.15,2013-09-30 22:28:00,
2013-09-30 17:31:00,79.7,50.4,29.57,South,182,6.0,9.0,36,0.00,,,0.00,Wunderground v.1.15,2013-09-30 22:31:00,
2013-09-30 17:32:00,79.7,50.4,29.57,South,188,7.0,9.0,36,0.00,,,0.00,Wunderground v.1.15,2013-09-30 22:32:00,
2013-09-30 17:33:00,79.6,50.3,29.57,SSW,196,7.0,10.0,36,0.00,,,0.00,Wunderground v.1.15,2013-09-30 22:33:00,
2013-09-30 17:34:00,79.6,50.3,29.57,South,177,8.0,10.0,36,0.00,,,0.00,Wunderground v.1.15,2013-09-30 22:34:00,
2013-09-30 17:37:00,79.5,50.2,29.57,SSE,166,7.0,10.0,36,0.00,,,0.00,Wunderground v.1.15,2013-09-30 22:37:00,
2013-09-30 17:38:00,79.5,50.2,29.57,South,181,6.0,10.0,36,0.00,,,0.00,Wunderground v.1.15,2013-09-30 22:38:00,
2013-09-30 17:40:00,79.4,50.1,29.58,South,179,5.0,6.0,36,0.00,,,0.00,Wunderground v.1.15,2013-09-30 22:40:00,
2013-09-30 17:43:00,79.4,50.1,29.58,SSE,157,2.0,7.0,36,0.00,,,0.00,Wunderground v.1.15,2013-09-30 22:43:00,
2013-09-30 17:44:00,79.4,50.1,29.57,South,174,7.0,7.0,36,0.00,,,0.00,Wunderground v.1.15,2013-09-30 22:44:00,
2013-09-30 17:46:00,79.3,50.0,29.58,South,175,9.0,9.0,36,0.00,,,0.00,Wunderground v.1.15,2013-09-30 22:46:00,
2013-09-30 17:48:00,79.3,50.0,29.58,South,178,6.0,9.0,36,0.00,,,0.00,Wunderground v.1.15,2013-09-30 22:48:00,
2013-09-30 17:49:00,79.3,50.0,29.58,SSE,163,7.0,9.0,36,0.00,,,0.00,Wunderground v.1.15,2013-09-30 22:49:00,
2013-09-30 17:51:00,79.1,49.8,29.58,South,169,6.0,8.0,36,0.00,,,0.00,Wunderground v.1.15,2013-09-30 22:51:00,
2013-09-30 17:53:00,79.1,49.8,29.58,South,184,3.0,8.0,36,0.00,,,0.00,Wunderground v.1.15,2013-09-30 22:53:00,
2013-09-30 17:54:00,79.1,49.8,29.58,South,184,4.0,8.0,36,0.00,,,0.00,Wunderground v.1.15,2013-09-30 22:54:00,
2013-09-30 17:57:00,78.9,50.4,29.58,South,170,5.0,8.0,37,0.00,,,0.00,Wunderground v.1.15,2013-09-30 22:57:00,
2013-09-30 17:58:00,78.8,49.6,29.58,South,178,6.0,8.0,36,0.00,,,0.00,Wunderground v.1.15,2013-09-30 22:58:00,
2013-09-30 17:59:00,78.8,49.6,29.58,South,175,8.0,9.0,36,0.00,,,0.00,Wunderground v.1.15,2013-09-30 22:59:00,
2013-09-30 18:04:00,78.6,50.1,29.58,South,176,1.0,8.0,37,0.00,,,0.00,Wunderground v.1.15,2013-09-30 23:04:00,
2013-09-30 18:05:00,78.5,50.1,29.58,South,182,5.0,8.0,37,0.00,,,0.00,Wunderground v.1.15,2013-09-30 23:05:00,
2013-09-30 18:09:00,78.3,49.9,29.59,South,180,3.0,8.0,37,0.00,,,0.00,Wunderground v.1.15,2013-09-30 23:09:00,
2013-09-30 18:10:00,78.3,49.9,29.59,South,178,6.0,6.0,37,0.00,,,0.00,Wunderground v.1.15,2013-09-30 23:10:00,
2013-09-30 18:14:00,78.0,50.3,29.59,South,172,2.0,9.0,38,0.00,,,0.00,Wunderground v.1.15,2013-09-30 23:14:00,
2013-09-30 18:15:00,78.0,50.3,29.59,South,172,2.0,9.0,38,0.00,,,0.00,Wunderground v.1.15,2013-09-30 23:15:00,
2013-09-30 18:19:00,77.7,50.1,29.59,South,175,6.0,9.0,38,0.00,,,0.00,Wunderground v.1.15,2013-09-30 23:19:00,
2013-09-30 18:20:00,77.7,50.1,29.59,South,181,5.0,7.0,38,0.00,,,0.00,Wunderground v.1.15,2013-09-30 23:20:00,
2013-09-30 18:24:00,77.4,50.5,29.59,South,177,5.0,8.0,39,0.00,,,0.00,Wunderground v.1.15,2013-09-30 23:24:00,
2013-09-30 18:25:00,77.4,50.5,29.59,South,173,7.0,8.0,39,0.00,,,0.00,Wunderground v.1.15,2013-09-30 23:25:00,
2013-09-30 18:26:00,77.3,50.4,29.59,South,175,4.0,8.0,39,0.00,,,0.00,Wunderground v.1.15,2013-09-30 23:26:00,
2013-09-30 18:29:00,77.1,50.2,29.59,South,174,6.0,6.0,39,0.00,,,0.00,Wunderground v.1.15,2013-09-30 23:29:00,
2013-09-30 18:30:00,77.1,50.2,29.59,South,175,6.0,6.0,39,0.00,,,0.00,Wunderground v.1.15,2013-09-30 23:30:00,
2013-09-30 18:31:00,77.0,50.1,29.59,South,175,6.0,7.0,39,0.00,,,0.00,Wunderground v.1.15,2013-09-30 23:31:00,
2013-09-30 18:34:00,76.7,50.6,29.59,South,188,4.0,9.0,40,0.00,,,0.00,Wunderground v.1.15,2013-09-30 23:34:00,
2013-09-30 18:36:00,76.6,50.5,29.59,South,186,4.0,9.0,40,0.00,,,0.00,Wunderground v.1.15,2013-09-30 23:36:00,
2013-09-30 18:37:00,76.5,50.4,29.59,SSE,168,4.0,9.0,40,0.00,,,0.00,Wunderground v.1.15,2013-09-30 23:37:00,
2013-09-30 18:41:00,76.2,50.1,29.59,South,178,5.0,6.0,40,0.00,,,0.00,Wunderground v.1.15,2013-09-30 23:41:00,
2013-09-30 18:42:00,76.2,50.8,29.59,South,188,3.0,6.0,41,0.00,,,0.00,Wunderground v.1.15,2013-09-30 23:42:00,
2013-09-30 18:46:00,75.8,50.4,29.59,South,176,5.0,6.0,41,0.00,,,0.00,Wunderground v.1.15,2013-09-30 23:46:00,
2013-09-30 18:47:00,75.8,50.4,29.59,South,177,5.0,6.0,41,0.00,,,0.00,Wunderground v.1.15,2013-09-30 23:47:00,
2013-09-30 18:48:00,75.7,51.0,29.59,South,171,5.0,6.0,42,0.00,,,0.00,Wunderground v.1.15,2013-09-30 23:48:00,
2013-09-30 18:51:00,75.4,50.7,29.59,South,171,2.0,6.0,42,0.00,,,0.00,Wunderground v.1.15,2013-09-30 23:51:00,
2013-09-30 18:52:00,75.4,50.7,29.59,South,171,5.0,6.0,42,0.00,,,0.00,Wunderground v.1.15,2013-09-30 23:52:00,
2013-09-30 18:53:00,75.3,50.6,29.59,South,171,4.0,6.0,42,0.00,,,0.00,Wunderground v.1.15,2013-09-30 23:53:00,
2013-09-30 18:54:00,75.2,50.5,29.59,South,171,5.0,6.0,42,0.00,,,0.00,Wunderground v.1.15,2013-09-30 23:54:00,
2013-09-30 18:56:00,74.9,50.9,29.59,South,190,4.0,7.0,43,0.00,,,0.00,Wunderground v.1.15,2013-09-30 23:56:00,
2013-09-30 18:57:00,74.9,50.9,29.59,South,190,4.0,7.0,43,0.00,,,0.00,Wunderground v.1.15,2013-09-30 23:57:00,
2013-09-30 18:58:00,74.8,50.8,29.59,South,180,4.0,7.0,43,0.00,,,0.00,Wunderground v.1.15,2013-09-30 23:58:00,
2013-09-30 18:59:00,74.7,50.7,29.59,South,191,5.0,7.0,43,0.00,,,0.00,Wunderground v.1.15,2013-09-30 23:59:00,
2013-09-30 19:01:00,74.4,51.1,29.59,South,177,5.0,8.0,44,0.00,,,0.00,Wunderground v.1.15,2013-10-01 00:01:00,
2013-09-30 19:02:00,74.4,51.1,29.59,South,174,6.0,8.0,44,0.00,,,0.00,Wunderground v.1.15,2013-10-01 00:02:00,
2013-09-30 19:03:00,74.4,51.1,29.59,South,190,4.0,8.0,44,0.00,,,0.00,Wunderground v.1.15,2013-10-01 00:03:00,
2013-09-30 19:04:00,74.3,51.0,29.59,South,188,9.0,9.0,44,0.00,,,0.00,Wunderground v.1.15,2013-10-01 00:04:00,
2013-09-30 19:07:00,74.2,50.9,29.59,South,183,5.0,9.0,44,0.00,,,0.00,Wunderground v.1.15,2013-10-01 00:07:00,
2013-09-30 19:08:00,74.1,50.8,29.59,South,178,6.0,9.0,44,0.00,,,0.00,Wunderground v.1.15,2013-10-01 00:08:00,
2013-09-30 19:09:00,74.0,50.7,29.59,South,183,4.0,5.0,44,0.00,,,0.00,Wunderground v.1.15,2013-10-01 00:09:00,
2013-09-30 19:12:00,73.8,50.5,29.59,South,190,6.0,8.0,44,0.00,,,0.00,Wunderground v.1.15,2013-10-01 00:12:00,
2013-09-30 19:13:00,73.8,51.1,29.59,South,181,3.0,8.0,45,0.00,,,0.00,Wunderground v.1.15,2013-10-01 00:13:00,
2013-09-30 19:15:00,73.6,50.9,29.59,South,175,5.0,8.0,45,0.00,,,0.00,Wunderground v.1.15,2013-10-01 00:15:00,
2013-09-30 19:17:00,73.4,50.8,29.59,SSE,153,5.0,8.0,45,0.00,,,0.00,Wunderground v.1.15,2013-10-01 00:17:00,
2013-09-30 19:18:00,73.4,50.8,29.59,South,186,3.0,8.0,45,0.00,,,0.00,Wunderground v.1.15,2013-10-01 00:18:00,
2013-09-30 19:20:00,73.2,51.2,29.59,South,181,5.0,6.0,46,0.00,,,0.00,Wunderground v.1.15,2013-10-01 00:20:00,
2013-09-30 19:22:00,73.1,51.1,29.59,South,179,5.0,6.0,46,0.00,,,0.00,Wunderground v.1.15,2013-10-01 00:22:00,
2013-09-30 19:23:00,73.1,51.1,29.59,South,188,4.0,6.0,46,0.00,,,0.00,Wunderground v.1.15,2013-10-01 00:23:00,
2013-09-30 19:24:00,73.1,51.1,29.59,SSE,159,5.0,6.0,46,0.00,,,0.00,Wunderground v.1.15,2013-10-01 00:24:00,
2013-09-30 19:25:00,73.0,51.0,29.59,South,184,4.0,6.0,46,0.00,,,0.00,Wunderground v.1.15,2013-10-01 00:25:00,
2013-09-30 19:28:00,72.8,51.4,29.59,South,180,3.0,6.0,47,0.00,,,0.00,Wunderground v.1.15,2013-10-01 00:28:00,
2013-09-30 19:29:00,72.7,51.3,29.59,South,188,4.0,6.0,47,0.00,,,0.00,Wunderground v.1.15,2013-10-01 00:29:00,
2013-09-30 19:31:00,72.5,51.1,29.59,South,178,4.0,6.0,47,0.00,,,0.00,Wunderground v.1.15,2013-10-01 00:31:00,
2013-09-30 19:33:00,72.1,50.8,29.59,South,178,4.0,6.0,47,0.00,,,0.00,Wunderground v.1.15,2013-10-01 00:33:00,
2013-09-30 19:34:00,72.1,51.3,29.59,South,181,3.0,6.0,48,0.00,,,0.00,Wunderground v.1.15,2013-10-01 00:34:00,
2013-09-30 19:36:00,71.7,51.0,29.59,South,188,3.0,6.0,48,0.00,,,0.00,Wunderground v.1.15,2013-10-01 00:36:00,
2013-09-30 19:38:00,71.5,51.3,29.59,SSE,168,5.0,6.0,49,0.00,,,0.00,Wunderground v.1.15,2013-10-01 00:38:00,
2013-09-30 19:39:00,71.5,51.3,29.60,South,180,5.0,7.0,49,0.00,,,0.00,Wunderground v.1.15,2013-10-01 00:39:00,
2013-09-30 19:41:00,71.4,51.2,29.60,South,180,4.0,6.0,49,0.00,,,0.00,Wunderground v.1.15,2013-10-01 00:41:00,
2013-09-30 19:43:00,71.2,51.1,29.60,South,169,4.0,7.0,49,0.00,,,0.00,Wunderground v.1.15,2013-10-01 00:43:00,
2013-09-30 19:44:00,71.2,51.1,29.59,SSE,165,4.0,7.0,49,0.00,,,0.00,Wunderground v.1.15,2013-10-01 00:44:00,
2013-09-30 19:46:00,71.1,51.5,29.60,South,174,4.0,7.0,50,0.00,,,0.00,Wunderground v.1.15,2013-10-01 00:46:00,
2013-09-30 19:48:00,71.0,51.4,29.60,South,175,5.0,7.0,50,0.00,,,0.00,Wunderground v.1.15,2013-10-01 00:48:00,
2013-09-30 19:49:00,70.9,51.3,29.60,South,181,4.0,7.0,50,0.00,,,0.00,Wunderground v.1.15,2013-10-01 00:49:00,
2013-09-30 19:51:00,70.9,51.3,29.60,South,184,4.0,5.0,50,0.00,,,0.00,Wunderground v.1.15,2013-10-01 00:51:00,
2013-09-30 19:54:00,70.9,51.9,29.60,South,182,2.0,6.0,51,0.00,,,0.00,Wunderground v.1.15,2013-10-01 00:54:00,
2013-09-30 19:55:00,70.9,51.9,29.60,South,180,4.0,6.0,51,0.00,,,0.00,Wunderground v.1.15,2013-10-01 00:55:00,
2013-09-30 19:56:00,70.9,51.9,29.60,South,187,4.0,6.0,51,0.00,,,0.00,Wunderground v.1.15,2013-10-01 00:56:00,
2013-09-30 19:59:00,70.8,51.8,29.60,South,175,6.0,6.0,51,0.00,,,0.00,Wunderground v.1.15,2013-10-01 00:59:00,
2013-09-30 20:00:00,70.8,51.8,29.60,South,178,5.0,5.0,51,0.00,,,0.00,Wunderground v.1.15,2013-10-01 01:00:00,
2013-09-30 20:01:00,70.7,51.7,29.60,South,170,5.0,6.0,51,0.00,,,0.00,Wunderground v.1.15,2013-10-01 01:01:00,
2013-09-30 20:04:00,70.6,52.1,29.60,South,175,6.0,6.0,52,0.00,,,0.00,Wunderground v.1.15,2013-10-01 01:04:00,
2013-09-30 20:05:00,70.5,52.0,29.60,South,188,4.0,6.0,52,0.00,,,0.00,Wunderground v.1.15,2013-10-01 01:05:00,
2013-09-30 20:06:00,70.5,52.0,29.61,South,172,5.0,6.0,52,0.00,,,0.00,Wunderground v.1.15,2013-10-01 01:06:00,
2013-09-30 20:09:00,70.3,51.8,29.61,South,172,2.0,6.0,52,0.00,,,0.00,Wunderground v.1.15,2013-10-01 01:09:00,
2013-09-30 20:10:00,70.2,51.7,29.61,South,175,4.0,5.0,52,0.00,,,0.00,Wunderground v.1.15,2013-10-01 01:10:00,
2013-09-30 20:11:00,70.2,51.7,29.61,South,174,4.0,5.0,52,0.00,,,0.00,Wunderground v.1.15,2013-10-01 01:11:00,
2013-09-30 20:13:00,69.9,51.5,29.61,SSE,165,4.0,5.0,52,0.00,,,0.00,Wunderground v.1.15,2013-10-01 01:13:00,
2013-09-30 20:14:00,69.8,51.9,29.61,SSE,165,2.0,5.0,53,0.00,,,0.00,Wunderground v.1.15,2013-10-01 01:14:00,
2013-09-30 20:15:00,69.7,51.8,29.61,SSE,165,2.0,5.0,53,0.00,,,0.00,Wunderground v.1.15,2013-10-01 01:15:00,
2013-09-30 20:16:00,69.5,51.6,29.61,SSE,165,4.0,5.0,53,0.00,,,0.00,Wunderground v.1.15,2013-10-01 01:16:00,
2013-09-30 20:19:00,69.0,51.7,29.61,SSE,165,2.0,5.0,54,0.00,,,0.00,Wunderground v.1.15,2013-10-01 01:19:00,
2013-09-30 20:20:00,68.9,51.6,29.61,South,173,4.0,5.0,54,0.00,,,0.00,Wunderground v.1.15,2013-10-01 01:20:00,
2013-09-30 20:21:00,68.8,51.5,29.61,SSE,164,5.0,5.0,54,0.00,,,0.00,Wunderground v.1.15,2013-10-01 01:21:00,
2013-09-30 20:25:00,68.3,51.5,29.61,South,175,5.0,6.0,55,0.00,,,0.00,Wunderground v.1.15,2013-10-01 01:25:00,
2013-09-30 20:26:00,68.2,51.4,29.61,South,189,4.0,6.0,55,0.00,,,0.00,Wunderground v.1.15,2013-10-01 01:26:00,
2013-09-30 20:27:00,68.2,51.4,29.61,South,175,4.0,6.0,55,0.00,,,0.00,Wunderground v.1.15,2013-10-01 01:27:00,
2013-09-30 20:30:00,68.0,51.7,29.61,SSW,194,4.0,6.0,56,0.00,,,0.00,Wunderground v.1.15,2013-10-01 01:30:00,
2013-09-30 20:32:00,68.0,51.7,29.61,South,169,5.0,6.0,56,0.00,,,0.00,Wunderground v.1.15,2013-10-01 01:32:00,
2013-09-30 20:33:00,68.0,51.7,29.61,SSE,167,4.0,7.0,56,0.00,,,0.00,Wunderground v.1.15,2013-10-01 01:33:00,
2013-09-30 20:35:00,67.9,51.6,29.61,South,184,4.0,7.0,56,0.00,,,0.00,Wunderground v.1.15,2013-10-01 01:35:00,
2013-09-30 20:36:00,67.9,51.6,29.61,SSE,167,5.0,7.0,56,0.00,,,0.00,Wunderground v.1.15,2013-10-01 01:36:00,
2013-09-30 20:38:00,67.9,51.6,29.61,South,175,5.0,7.0,56,0.00,,,0.00,Wunderground v.1.15,2013-10-01 01:38:00,
2013-09-30 20:40:00,67.8,52.0,29.61,South,184,4.0,6.0,57,0.00,,,0.00,Wunderground v.1.15,2013-10-01 01:40:00,
2013-09-30 20:41:00,67.8,52.0,29.61,South,182,6.0,7.0,57,0.00,,,0.00,Wunderground v.1.15,2013-10-01 01:41:00,
2013-09-30 20:43:00,67.8,52.0,29.61,SSE,161,4.0,7.0,57,0.00,,,0.00,Wunderground v.1.15,2013-10-01 01:43:00,
2013-09-30 20:44:00,67.8,52.0,29.61,South,171,4.0,7.0,57,0.00,,,0.00,Wunderground v.1.15,2013-10-01 01:44:00,
2013-09-30 20:45:00,67.8,52.0,29.61,South,169,5.0,7.0,57,0.00,,,0.00,Wunderground v.1.15,2013-10-01 01:45:00,
2013-09-30 20:47:00,67.7,51.9,29.61,South,184,5.0,7.0,57,0.00,,,0.00,Wunderground v.1.15,2013-10-01 01:47:00,
2013-09-30 20:48:00,67.7,51.9,29.61,SSE,168,4.0,7.0,57,0.00,,,0.00,Wunderground v.1.15,2013-10-01 01:48:00,
2013-09-30 20:49:00,67.7,51.9,29.61,South,169,5.0,7.0,57,0.00,,,0.00,Wunderground v.1.15,2013-10-01 01:49:00,
2013-09-30 20:50:00,67.7,51.9,29.61,South,179,5.0,5.0,57,0.00,,,0.00,Wunderground v.1.15,2013-10-01 01:50:00,
2013-09-30 20:52:00,67.6,52.3,29.61,South,176,6.0,6.0,58,0.00,,,0.00,Wunderground v.1.15,2013-10-01 01:52:00,
2013-09-30 20:53:00,67.6,52.3,29.61,South,177,5.0,6.0,58,0.00,,,0.00,Wunderground v.1.15,2013-10-01 01:53:00,
2013-09-30 20:54:00,67.5,52.2,29.62,South,170,5.0,6.0,58,0.00,,,0.00,Wunderground v.1.15,2013-10-01 01:54:00,
2013-09-30 20:55:00,67.5,52.2,29.62,South,181,3.0,6.0,58,0.00,,,0.00,Wunderground v.1.15,2013-10-01 01:55:00,
2013-09-30 20:56:00,67.5,52.2,29.61,South,188,5.0,6.0,58,0.00,,,0.00,Wunderground v.1.15,2013-10-01 01:56:00,
2013-09-30 20:57:00,67.5,52.2,29.61,SSE,167,6.0,6.0,58,0.00,,,0.00,Wunderground v.1.15,2013-10-01 01:57:00,
2013-09-30 20:58:00,67.4,52.1,29.61,SSE,168,5.0,6.0,58,0.00,,,0.00,Wunderground v.1.15,2013-10-01 01:58:00,
2013-09-30 21:00:00,67.4,52.1,29.61,South,170,6.0,6.0,58,0.00,,,0.00,Wunderground v.1.15,2013-10-01 02:00:00,
2013-09-30 21:02:00,67.4,52.1,29.62,South,185,4.0,6.0,58,0.00,,,0.00,Wunderground v.1.15,2013-10-01 02:02:00,
2013-09-30 21:03:00,67.4,52.1,29.62,South,186,4.0,6.0,58,0.00,,,0.00,Wunderground v.1.15,2013-10-01 02:03:00,
2013-09-30 21:05:00,67.4,52.1,29.61,SSE,159,5.0,7.0,58,0.00,,,0.00,Wunderground v.1.15,2013-10-01 02:05:00,
2013-09-30 21:07:00,67.5,52.2,29.61,South,174,5.0,7.0,58,0.00,,,0.00,Wunderground v.1.15,2013-10-01 02:07:00,
2013-09-30 21:08:00,67.5,52.2,29.61,South,174,6.0,9.0,58,0.00,,,0.00,Wunderground v.1.15,2013-10-01 02:08:00,
2013-09-30 21:10:00,67.5,52.2,29.62,South,184,6.0,7.0,58,0.00,,,0.00,Wunderground v.1.15,2013-10-01 02:10:00,
2013-09-30 21:11:00,67.5,52.2,29.62,South,183,6.0,7.0,58,0.00,,,0.00,Wunderground v.1.15,2013-10-01 02:11:00,
2013-09-30 21:12:00,67.4,52.1,29.62,South,175,5.0,7.0,58,0.00,,,0.00,Wunderground v.1.15,2013-10-01 02:12:00,
2013-09-30 21:13:00,67.4,52.1,29.62,South,179,5.0,7.0,58,0.00,,,0.00,Wunderground v.1.15,2013-10-01 02:13:00,
2013-09-30 21:14:00,67.4,52.1,29.62,South,178,5.0,7.0,58,0.00,,,0.00,Wunderground v.1.15,2013-10-01 02:14:00,
2013-09-30 21:16:00,67.3,52.0,29.62,South,182,3.0,7.0,58,0.00,,,0.00,Wunderground v.1.15,2013-10-01 02:16:00,
2013-09-30 21:17:00,67.2,51.9,29.62,SSE,166,5.0,7.0,58,0.00,,,0.00,Wunderground v.1.15,2013-10-01 02:17:00,
2013-09-30 21:18:00,67.1,51.8,29.62,SSE,162,5.0,7.0,58,0.00,,,0.00,Wunderground v.1.15,2013-10-01 02:18:00,
2013-09-30 21:19:00,67.1,52.3,29.62,South,182,3.0,7.0,59,0.00,,,0.00,Wunderground v.1.15,2013-10-01 02:19:00,
2013-09-30 21:21:00,67.1,52.3,29.62,South,182,4.0,8.0,59,0.00,,,0.00,Wunderground v.1.15,2013-10-01 02:21:00,
2013-09-30 21:23:00,67.1,52.3,29.62,SSE,163,7.0,8.0,59,0.00,,,0.00,Wunderground v.1.15,2013-10-01 02:23:00,
2013-09-30 21:24:00,67.2,51.9,29.62,South,178,6.0,8.0,58,0.00,,,0.00,Wunderground v.1.15,2013-10-01 02:24:00,
2013-09-30 21:25:00,67.2,51.9,29.62,South,172,5.0,8.0,58,0.00,,,0.00,Wunderground v.1.15,2013-10-01 02:25:00,
2013-09-30 21:26:00,67.3,52.0,29.62,South,180,5.0,8.0,58,0.00,,,0.00,Wunderground v.1.15,2013-10-01 02:26:00,
2013-09-30 21:28:00,67.3,52.0,29.62,South,190,7.0,8.0,58,0.00,,,0.00,Wunderground v.1.15,2013-10-01 02:28:00,
2013-09-30 21:30:00,67.4,52.1,29.62,South,183,6.0,8.0,58,0.00,,,0.00,Wunderground v.1.15,2013-10-01 02:30:00,
2013-09-30 21:32:00,67.6,52.3,29.62,South,171,5.0,8.0,58,0.00,,,0.00,Wunderground v.1.15,2013-10-01 02:32:00,
2013-09-30 21:33:00,67.6,52.3,29.62,South,180,5.0,8.0,58,0.00,,,0.00,Wunderground v.1.15,2013-10-01 02:33:00,
2013-09-30 21:35:00,67.6,52.3,29.62,South,173,7.0,8.0,58,0.00,,,0.00,Wunderground v.1.15,2013-10-01 02:35:00,
2013-09-30 21:37:00,67.6,52.3,29.62,South,184,4.0,9.0,58,0.00,,,0.00,Wunderground v.1.15,2013-10-01 02:37:00,
2013-09-30 21:39:00,67.7,52.4,29.62,South,171,5.0,5.0,58,0.00,,,0.00,Wunderground v.1.15,2013-10-01 02:39:00,
2013-09-30 21:41:00,67.6,52.3,29.62,SSE,167,7.0,7.0,58,0.00,,,0.00,Wunderground v.1.15,2013-10-01 02:41:00,
2013-09-30 21:42:00,67.5,52.2,29.62,South,173,6.0,7.0,58,0.00,,,0.00,Wunderground v.1.15,2013-10-01 02:42:00,
2013-09-30 21:44:00,67.5,52.2,29.62,South,173,6.0,7.0,58,0.00,,,0.00,Wunderground v.1.15,2013-10-01 02:44:00,
2013-09-30 21:45:00,67.4,52.1,29.62,South,180,4.0,7.0,58,0.00,,,0.00,Wunderground v.1.15,2013-10-01 02:45:00,
2013-09-30 21:46:00,67.3,52.0,29.62,South,179,6.0,7.0,58,0.00,,,0.00,Wunderground v.1.15,2013-10-01 02:46:00,
2013-09-30 21:47:00,67.2,51.9,29.62,South,184,5.0,7.0,58,0.00,,,0.00,Wunderground v.1.15,2013-10-01 02:47:00,
2013-09-30 21:48:00,67.1,51.8,29.62,SSE,166,6.0,7.0,58,0.00,,,0.00,Wunderground v.1.15,2013-10-01 02:48:00,
2013-09-30 21:50:00,66.9,52.1,29.62,South,169,6.0,7.0,59,0.00,,,0.00,Wunderground v.1.15,2013-10-01 02:50:00,
2013-09-30 21:51:00,66.8,52.0,29.62,SSE,164,4.0,7.0,59,0.00,,,0.00,Wunderground v.1.15,2013-10-01 02:51:00,
2013-09-30 21:52:00,66.8,52.0,29.62,SSE,168,5.0,7.0,59,0.00,,,0.00,Wunderground v.1.15,2013-10-01 02:52:00,
2013-09-30 21:53:00,66.7,51.9,29.62,South,180,6.0,7.0,59,0.00,,,0.00,Wunderground v.1.15,2013-10-01 02:53:00,
2013-09-30 21:55:00,66.5,52.2,29.62,SSE,162,9.0,9.0,60,0.00,,,0.00,Wunderground v.1.15,2013-10-01 02:55:00,
2013-09-30 21:57:00,66.5,52.2,29.62,South,190,6.0,9.0,60,0.00,,,0.00,Wunderground v.1.15,2013-10-01 02:57:00,
2013-09-30 21:59:00,66.4,52.1,29.62,South,178,7.0,9.0,60,0.00,,,0.00,Wunderground v.1.15,2013-10-01 02:59:00,
2013-09-30 22:01:00,66.4,52.1,29.62,SSW,196,5.0,10.0,60,0.00,,,0.00,Wunderground v.1.15,2013-10-01 03:01:00,
2013-09-30 22:02:00,66.3,52.0,29.62,South,173,7.0,10.0,60,0.00,,,0.00,Wunderground v.1.15,2013-10-01 03:02:00,
2013-09-30 22:04:00,66.4,52.1,29.62,South,187,6.0,10.0,60,0.00,,,0.00,Wunderground v.1.15,2013-10-01 03:04:00,
2013-09-30 22:06:00,66.5,52.2,29.62,South,184,4.0,10.0,60,0.00,,,0.00,Wunderground v.1.15,2013-10-01 03:06:00,
2013-09-30 22:07:00,66.4,52.1,29.62,SSE,165,5.0,10.0,60,0.00,,,0.00,Wunderground v.1.15,2013-10-01 03:07:00,
2013-09-30 22:09:00,66.4,52.1,29.62,South,185,5.0,10.0,60,0.00,,,0.00,Wunderground v.1.15,2013-10-01 03:09:00,
2013-09-30 22:11:00,66.4,52.1,29.62,South,171,7.0,9.0,60,0.00,,,0.00,Wunderground v.1.15,2013-10-01 03:11:00,
2013-09-30 22:12:00,66.4,52.1,29.62,SSE,167,5.0,9.0,60,0.00,,,0.00,Wunderground v.1.15,2013-10-01 03:12:00,
2013-09-30 22:13:00,66.4,52.1,29.62,South,173,7.0,9.0,60,0.00,,,0.00,Wunderground v.1.15,2013-10-01 03:13:00,
2013-09-30 22:14:00,66.3,52.0,29.62,SSE,148,7.0,9.0,60,0.00,,,0.00,Wunderground v.1.15,2013-10-01 03:14:00,
2013-09-30 22:15:00,66.3,52.0,29.62,SSE,151,7.0,9.0,60,0.00,,,0.00,Wunderground v.1.15,2013-10-01 03:15:00,
2013-09-30 22:16:00,66.3,52.4,29.62,South,184,6.0,10.0,61,0.00,,,0.00,Wunderground v.1.15,2013-10-01 03:16:00,
2013-09-30 22:17:00,66.3,52.4,29.62,South,182,9.0,10.0,61,0.00,,,0.00,Wunderground v.1.15,2013-10-01 03:17:00,
2013-09-30 22:18:00,66.3,52.4,29.62,South,169,7.0,10.0,61,0.00,,,0.00,Wunderground v.1.15,2013-10-01 03:18:00,
2013-09-30 22:20:00,66.2,52.3,29.62,South,175,9.0,9.0,61,0.00,,,0.00,Wunderground v.1.15,2013-10-01 03:20:00,
2013-09-30 22:21:00,66.2,52.3,29.62,South,189,6.0,10.0,61,0.00,,,0.00,Wunderground v.1.15,2013-10-01 03:21:00,
2013-09-30 22:22:00,66.2,52.3,29.62,South,178,6.0,10.0,61,0.00,,,0.00,Wunderground v.1.15,2013-10-01 03:22:00,
2013-09-30 22:23:00,66.2,52.3,29.62,South,184,6.0,10.0,61,0.00,,,0.00,Wunderground v.1.15,2013-10-01 03:23:00,
2013-09-30 22:25:00,66.2,52.3,29.62,South,171,8.0,11.0,61,0.00,,,0.00,Wunderground v.1.15,2013-10-01 03:25:00,
2013-09-30 22:27:00,66.2,52.3,29.62,South,184,6.0,11.0,61,0.00,,,0.00,Wunderground v.1.15,2013-10-01 03:27:00,
2013-09-30 22:28:00,66.2,52.3,29.62,South,169,5.0,11.0,61,0.00,,,0.00,Wunderground v.1.15,2013-10-01 03:28:00,
2013-09-30 22:30:00,66.1,52.3,29.62,South,172,7.0,9.0,61,0.00,,,0.00,Wunderground v.1.15,2013-10-01 03:30:00,
2013-09-30 22:31:00,66.1,52.3,29.62,South,173,9.0,9.0,61,0.00,,,0.00,Wunderground v.1.15,2013-10-01 03:31:00,
2013-09-30 22:32:00,66.1,52.3,29.62,South,186,6.0,9.0,61,0.00,,,0.00,Wunderground v.1.15,2013-10-01 03:32:00,
2013-09-30 22:34:00,66.1,52.3,29.62,South,174,5.0,9.0,61,0.00,,,0.00,Wunderground v.1.15,2013-10-01 03:34:00,
2013-09-30 22:36:00,66.0,52.2,29.62,SSE,167,6.0,9.0,61,0.00,,,0.00,Wunderground v.1.15,2013-10-01 03:36:00,
2013-09-30 22:37:00,66.0,52.2,29.62,South,184,6.0,9.0,61,0.00,,,0.00,Wunderground v.1.15,2013-10-01 03:37:00,
2013-09-30 22:38:00,66.0,52.2,29.62,South,173,5.0,9.0,61,0.00,,,0.00,Wunderground v.1.15,2013-10-01 03:38:00,
2013-09-30 22:39:00,65.9,52.1,29.62,South,181,5.0,9.0,61,0.00,,,0.00,Wunderground v.1.15,2013-10-01 03:39:00,
2013-09-30 22:42:00,65.9,52.5,29.62,South,178,6.0,7.0,62,0.00,,,0.00,Wunderground v.1.15,2013-10-01 03:42:00,
2013-09-30 22:43:00,65.9,52.5,29.62,South,184,5.0,8.0,62,0.00,,,0.00,Wunderground v.1.15,2013-10-01 03:43:00,
2013-09-30 22:44:00,65.9,52.5,29.62,South,178,8.0,9.0,62,0.00,,,0.00,Wunderground v.1.15,2013-10-01 03:44:00,
2013-09-30 22:47:00,65.8,52.4,29.62,SSE,161,6.0,9.0,62,0.00,,,0.00,Wunderground v.1.15,2013-10-01 03:47:00,
2013-09-30 22:48:00,65.8,52.4,29.62,SSE,168,5.0,9.0,62,0.00,,,0.00,Wunderground v.1.15,2013-10-01 03:48:00,
2013-09-30 22:50:00,65.9,52.5,29.62,South,176,7.0,7.0,62,0.00,,,0.00,Wunderground v.1.15,2013-10-01 03:50:00,
2013-09-30 22:52:00,65.9,52.5,29.62,South,170,7.0,8.0,62,0.00,,,0.00,Wunderground v.1.15,2013-10-01 03:52:00,
2013-09-30 22:53:00,65.9,52.5,29.62,SSE,166,6.0,10.0,62,0.00,,,0.00,Wunderground v.1.15,2013-10-01 03:53:00,
2013-09-30 22:54:00,65.9,52.5,29.62,South,188,6.0,10.0,62,0.00,,,0.00,Wunderground v.1.15,2013-10-01 03:54:00,
2013-09-30 22:56:00,65.8,52.4,29.62,SSE,155,5.0,10.0,62,0.00,,,0.00,Wunderground v.1.15,2013-10-01 03:56:00,
2013-09-30 22:57:00,65.8,52.4,29.62,South,181,6.0,10.0,62,0.00,,,0.00,Wunderground v.1.15,2013-10-01 03:57:00,
2013-09-30 22:58:00,65.8,52.4,29.62,SSE,163,6.0,10.0,62,0.00,,,0.00,Wunderground v.1.15,2013-10-01 03:58:00,
2013-09-30 23:01:00,65.8,52.4,29.62,South,169,4.0,11.0,62,0.00,,,0.00,Wunderground v.1.15,2013-10-01 04:01:00,
2013-09-30 23:02:00,65.9,52.5,29.62,South,183,4.0,11.0,62,0.00,,,0.00,Wunderground v.1.15,2013-10-01 04:02:00,
2013-09-30 23:06:00,65.9,52.5,29.62,South,176,6.0,11.0,62,0.00,,,0.00,Wunderground v.1.15,2013-10-01 04:06:00,
2013-09-30 23:07:00,65.9,52.5,29.62,South,190,6.0,11.0,62,0.00,,,0.00,Wunderground v.1.15,2013-10-01 04:07:00,
2013-09-30 23:11:00,65.8,52.4,29.62,South,169,8.0,8.0,62,0.00,,,0.00,Wunderground v.1.15,2013-10-01 04:11:00,
2013-09-30 23:12:00,65.9,52.5,29.62,South,174,4.0,8.0,62,0.00,,,0.00,Wunderground v.1.15,2013-10-01 04:12:00,
2013-09-30 23:13:00,65.8,52.0,29.62,South,178,5.0,8.0,61,0.00,,,0.00,Wunderground v.1.15,2013-10-01 04:13:00,
2013-09-30 23:17:00,65.6,52.2,29.62,South,184,5.0,8.0,62,0.00,,,0.00,Wunderground v.1.15,2013-10-01 04:17:00,
2013-09-30 23:18:00,65.6,52.2,29.62,South,175,6.0,8.0,62,0.00,,,0.00,Wunderground v.1.15,2013-10-01 04:18:00,
2013-09-30 23:22:00,65.5,52.1,29.62,South,178,2.0,7.0,62,0.00,,,0.00,Wunderground v.1.15,2013-10-01 04:22:00,
2013-09-30 23:23:00,65.5,52.1,29.62,South,171,5.0,7.0,62,0.00,,,0.00,Wunderground v.1.15,2013-10-01 04:23:00,
2013-09-30 23:27:00,65.4,52.0,29.62,South,170,6.0,8.0,62,0.00,,,0.00,Wunderground v.1.15,2013-10-01 04:27:00,
2013-09-30 23:28:00,65.4,52.0,29.62,SSE,155,6.0,8.0,62,0.00,,,0.00,Wunderground v.1.15,2013-10-01 04:28:00,
2013-09-30 23:29:00,65.3,51.9,29.62,South,175,5.0,5.0,62,0.00,,,0.00,Wunderground v.1.15,2013-10-01 04:29:00,
2013-09-30 23:32:00,65.1,52.2,29.62,South,182,5.0,7.0,63,0.00,,,0.00,Wunderground v.1.15,2013-10-01 04:32:00,
2013-09-30 23:33:00,65.1,52.2,29.62,South,179,4.0,7.0,63,0.00,,,0.00,Wunderground v.1.15,2013-10-01 04:33:00,
2013-09-30 23:34:00,65.0,52.1,29.62,South,184,4.0,7.0,63,0.00,,,0.00,Wunderground v.1.15,2013-10-01 04:34:00,
2013-09-30 23:38:00,64.8,51.9,29.62,South,183,4.0,7.0,63,0.00,,,0.00,Wunderground v.1.15,2013-10-01 04:38:00,
2013-09-30 23:39:00,64.8,51.9,29.62,South,181,4.0,7.0,63,0.00,,,0.00,Wunderground v.1.15,2013-10-01 04:39:00,
2013-09-30 23:40:00,64.7,51.8,29.62,South,180,5.0,6.0,63,0.00,,,0.00,Wunderground v.1.15,2013-10-01 04:40:00,
2013-09-30 23:43:00,64.5,52.0,29.62,South,184,3.0,8.0,64,0.00,,,0.00,Wunderground v.1.15,2013-10-01 04:43:00,
2013-09-30 23:44:00,64.5,52.0,29.62,South,178,2.0,8.0,64,0.00,,,0.00,Wunderground v.1.15,2013-10-01 04:44:00,
2013-09-30 23:46:00,64.4,52.0,29.62,South,179,6.0,8.0,64,0.00,,,0.00,Wunderground v.1.15,2013-10-01 04:46:00,
2013-09-30 23:48:00,64.2,51.8,29.62,South,175,5.0,8.0,64,0.00,,,0.00,Wunderground v.1.15,2013-10-01 04:48:00,
2013-09-30 23:49:00,64.2,51.8,29.62,South,184,3.0,8.0,64,0.00,,,0.00,Wunderground v.1.15,2013-10-01 04:49:00,
2013-09-30 23:51:00,64.1,52.1,29.62,South,175,5.0,6.0,65,0.00,,,0.00,Wunderground v.1.15,2013-10-01 04:51:00,
2013-09-30 23:54:00,64.0,52.0,29.62,South,190,4.0,6.0,65,0.00,,,0.00,Wunderground v.1.15,2013-10-01 04:54:00,
2013-09-30 23:55:00,64.0,52.0,29.62,South,178,7.0,7.0,65,0.00,,,0.00,Wunderground v.1.15,2013-10-01 04:55:00,
2013-09-30 23:57:00,63.9,51.9,29.62,South,175,5.0,7.0,65,0.00,,,0.00,Wunderground v.1.15,2013-10-01 04:57:00,